Wetterdaten: Sonntag, 26.04.2015
Datum Zeit Temp. Aussen +5cm Feuchte Auss Luftdruck Regen Sonnenschein Regendauer Solar Windben
26.04.2015 00:00 11,7 C 10,0 C 90 % 1007,2 hPa 0,0 l/m 0 min 0 min 0 W/m 12,6 km/h (3 Bft)
26.04.2015 00:02 11,7 C 10,0 C 90 % 1007,3 hPa 0,0 l/m 0 min 0 min 0 W/m 12,6 km/h (3 Bft)
26.04.2015 00:06 11,7 C 10,0 C 91 % 1007,2 hPa 0,0 l/m 0 min 0 min 0 W/m 10,5 km/h (2 Bft)
26.04.2015 00:08 11,7 C 10,0 C 91 % 1007,3 hPa 0,0 l/m 0 min 0 min 0 W/m 8,4 km/h (2 Bft)
26.04.2015 00:10 11,7 C 10,0 C 91 % 1007,3 hPa 0,0 l/m 0 min 0 min 0 W/m 6,3 km/h (2 Bft)
26.04.2015 00:12 11,7 C 10,0 C 91 % 1007,3 hPa 0,0 l/m 0 min 0 min 0 W/m 12,6 km/h (3 Bft)
26.04.2015 00:14 11,7 C 10,0 C 91 % 1007,3 hPa 0,0 l/m 0 min 0 min 0 W/m 6,3 km/h (2 Bft)
26.04.2015 00:16 11,7 C 10,0 C 91 % 1007,3 hPa 0,0 l/m 0 min 0 min 0 W/m 8,4 km/h (2 Bft)
26.04.2015 00:18 11,8 C 10,0 C 91 % 1007,3 hPa 0,0 l/m 0 min 0 min 0 W/m 14,6 km/h (3 Bft)
26.04.2015 00:20 11,8 C 10,0 C 91 % 1007,3 hPa 0,0 l/m 0 min 0 min 0 W/m 8,4 km/h (2 Bft)
26.04.2015 00:22 11,8 C 10,0 C 91 % 1007,3 hPa 0,0 l/m 0 min 0 min 0 W/m 8,4 km/h (2 Bft)
26.04.2015 00:24 11,8 C 10,0 C 91 % 1007,3 hPa 0,0 l/m 0 min 0 min 0 W/m 8,4 km/h (2 Bft)
26.04.2015 00:26 11,8 C 10,6 C 91 % 1007,3 hPa 0,0 l/m 0 min 0 min 0 W/m 10,5 km/h (2 Bft)
26.04.2015 00:28 11,8 C 10,6 C 91 % 1007,4 hPa 0,0 l/m 0 min 0 min 0 W/m 10,5 km/h (2 Bft)
26.04.2015 00:30 11,8 C 10,6 C 91 % 1007,4 hPa 0,0 l/m 0 min 0 min 0 W/m 10,5 km/h (2 Bft)
26.04.2015 00:32 11,8 C 10,6 C 91 % 1007,3 hPa 0,0 l/m 0 min 0 min 0 W/m 10,5 km/h (2 Bft)
26.04.2015 00:34 11,8 C 10,6 C 91 % 1007,4 hPa 0,0 l/m 0 min 0 min 0 W/m 8,4 km/h (2 Bft)
26.04.2015 00:36 11,9 C 10,6 C 91 % 1007,3 hPa 0,0 l/m 0 min 0 min 0 W/m 8,4 km/h (2 Bft)
26.04.2015 00:38 11,9 C 10,6 C 91 % 1007,4 hPa 0,0 l/m 0 min 0 min 0 W/m 8,4 km/h (2 Bft)
26.04.2015 00:40 11,9 C 10,6 C 91 % 1007,3 hPa 0,0 l/m 0 min 0 min 0 W/m 6,3 km/h (2 Bft)
26.04.2015 00:42 11,9 C 10,6 C 91 % 1007,3 hPa 0,0 l/m 0 min 0 min 0 W/m 14,6 km/h (3 Bft)
26.04.2015 00:44 11,9 C 10,6 C 91 % 1007,3 hPa 0,0 l/m 0 min 0 min 0 W/m 8,4 km/h (2 Bft)
26.04.2015 00:46 11,9 C 10,6 C 91 % 1007,2 hPa 0,0 l/m 0 min 0 min 0 W/m 6,3 km/h (2 Bft)
26.04.2015 00:48 12,0 C 10,6 C 91 % 1007,2 hPa 0,0 l/m 0 min 0 min 0 W/m 6,3 km/h (2 Bft)
26.04.2015 00:50 12,0 C 10,6 C 91 % 1007,2 hPa 0,0 l/m 0 min 0 min 0 W/m 10,5 km/h (2 Bft)
26.04.2015 00:52 12,1 C 10,6 C 91 % 1007,3 hPa 0,0 l/m 0 min 0 min 0 W/m 10,5 km/h (2 Bft)
26.04.2015 00:54 12,1 C 10,6 C 91 % 1007,2 hPa 0,0 l/m 0 min 0 min 0 W/m 6,3 km/h (2 Bft)
26.04.2015 00:56 12,1 C 10,6 C 91 % 1007,3 hPa 0,0 l/m 0 min 0 min 0 W/m 8,4 km/h (2 Bft)
26.04.2015 00:58 12,1 C 10,6 C 91 % 1007,3 hPa 0,0 l/m 0 min 0 min 0 W/m 8,4 km/h (2 Bft)
26.04.2015 01:00 12,1 C 10,6 C 91 % 1007,3 hPa 0,0 l/m 0 min 0 min 0 W/m 6,3 km/h (2 Bft)
26.04.2015 01:02 12,1 C 10,6 C 91 % 1007,2 hPa 0,0 l/m 0 min 0 min 0 W/m 6,3 km/h (2 Bft)
26.04.2015 01:04 12,2 C 10,6 C 91 % 1007,2 hPa 0,0 l/m 0 min 0 min 0 W/m 6,3 km/h (2 Bft)
26.04.2015 01:06 12,2 C 10,6 C 91 % 1007,2 hPa 0,0 l/m 0 min 0 min 0 W/m 6,3 km/h (2 Bft)
26.04.2015 01:08 12,2 C 10,6 C 91 % 1007,2 hPa 0,0 l/m 0 min 0 min 0 W/m 6,3 km/h (2 Bft)
26.04.2015 01:10 12,2 C 10,6 C 91 % 1007,3 hPa 0,0 l/m 0 min 0 min 0 W/m 6,3 km/h (2 Bft)
26.04.2015 01:12 12,2 C 10,6 C 91 % 1007,3 hPa 0,0 l/m 0 min 2 min 0 W/m 8,4 km/h (2 Bft)
26.04.2015 01:14 12,2 C 10,6 C 90 % 1007,4 hPa 0,0 l/m 0 min 2 min 0 W/m 12,6 km/h (3 Bft)
26.04.2015 01:16 12,3 C 10,6 C 90 % 1007,6 hPa 0,0 l/m 0 min 2 min 0 W/m 18,8 km/h (3 Bft)
26.04.2015 01:18 12,3 C 10,6 C 91 % 1007,6 hPa 0,0 l/m 0 min 2 min 0 W/m 31,4 km/h (5 Bft)
26.04.2015 01:20 12,3 C 10,6 C 91 % 1007,6 hPa 0,0 l/m 0 min 2 min 0 W/m 25,1 km/h (4 Bft)
26.04.2015 01:22 12,4 C 10,6 C 91 % 1007,6 hPa 0,0 l/m 0 min 2 min 0 W/m 25,1 km/h (4 Bft)
26.04.2015 01:24 12,4 C 10,6 C 91 % 1007,6 hPa 0,2 l/m 0 min 2 min 0 W/m 27,2 km/h (4 Bft)
26.04.2015 01:26 12,5 C 10,6 C 91 % 1007,7 hPa 0,0 l/m 0 min 2 min 0 W/m 16,7 km/h (3 Bft)
26.04.2015 01:28 12,5 C 10,6 C 91 % 1007,6 hPa 0,0 l/m 0 min 2 min 0 W/m 20,9 km/h (4 Bft)
26.04.2015 01:30 12,5 C 10,6 C 91 % 1007,6 hPa 0,2 l/m 0 min 2 min 0 W/m 20,9 km/h (4 Bft)
26.04.2015 01:32 12,5 C 10,6 C 91 % 1007,6 hPa 0,0 l/m 0 min 2 min 0 W/m 16,7 km/h (3 Bft)
26.04.2015 01:34 12,5 C 10,6 C 91 % 1007,5 hPa 0,0 l/m 0 min 2 min 0 W/m 16,7 km/h (3 Bft)
26.04.2015 01:36 12,4 C 10,6 C 91 % 1007,5 hPa 0,2 l/m 0 min 2 min 0 W/m 20,9 km/h (4 Bft)
26.04.2015 01:38 12,4 C 10,6 C 91 % 1007,5 hPa 0,2 l/m 0 min 2 min 0 W/m 25,1 km/h (4 Bft)
26.04.2015 01:40 12,4 C 10,6 C 91 % 1007,5 hPa 0,0 l/m 0 min 2 min 0 W/m 14,6 km/h (3 Bft)
26.04.2015 01:42 12,4 C 10,6 C 91 % 1007,4 hPa 0,2 l/m 0 min 2 min 0 W/m 20,9 km/h (4 Bft)
26.04.2015 01:44 12,3 C 10,6 C 92 % 1007,4 hPa 0,2 l/m 0 min 2 min 0 W/m 18,8 km/h (3 Bft)
26.04.2015 01:46 12,3 C 10,6 C 92 % 1007,4 hPa 0,2 l/m 0 min 2 min 0 W/m 20,9 km/h (4 Bft)
26.04.2015 01:48 12,3 C 10,6 C 92 % 1007,3 hPa 0,0 l/m 0 min 2 min 0 W/m 16,7 km/h (3 Bft)
26.04.2015 01:50 12,3 C 10,6 C 92 % 1007,2 hPa 0,0 l/m 0 min 2 min 0 W/m 18,8 km/h (3 Bft)
26.04.2015 01:52 12,2 C 10,6 C 92 % 1007,2 hPa 0,2 l/m 0 min 2 min 0 W/m 14,6 km/h (3 Bft)
26.04.2015 01:54 12,2 C 10,6 C 92 % 1007,2 hPa 0,0 l/m 0 min 2 min 0 W/m 14,6 km/h (3 Bft)
26.04.2015 01:56 12,2 C 10,6 C 93 % 1007,2 hPa 0,0 l/m 0 min 2 min 0 W/m 10,5 km/h (2 Bft)
26.04.2015 01:58 12,2 C 10,6 C 93 % 1007,2 hPa 0,0 l/m 0 min 2 min 0 W/m 8,4 km/h (2 Bft)
26.04.2015 02:00 12,2 C 10,6 C 93 % 1007,1 hPa 0,2 l/m 0 min 2 min 0 W/m 8,4 km/h (2 Bft)
26.04.2015 02:02 12,2 C 10,6 C 93 % 1007,1 hPa 0,0 l/m 0 min 2 min 0 W/m 8,4 km/h (2 Bft)
26.04.2015 02:04 12,2 C 10,6 C 93 % 1007,1 hPa 0,0 l/m 0 min 2 min 0 W/m 6,3 km/h (2 Bft)
26.04.2015 02:06 12,1 C 10,6 C 93 % 1007,1 hPa 0,0 l/m 0 min 2 min 0 W/m 8,4 km/h (2 Bft)
26.04.2015 02:08 12,1 C 10,6 C 93 % 1007,0 hPa 0,2 l/m 0 min 2 min 0 W/m 10,5 km/h (2 Bft)
26.04.2015 02:10 12,1 C 10,6 C 93 % 1007,1 hPa 0,0 l/m 0 min 2 min 0 W/m 14,6 km/h (3 Bft)
26.04.2015 02:12 12,1 C 10,6 C 93 % 1007,1 hPa 0,0 l/m 0 min 2 min 0 W/m 10,5 km/h (2 Bft)
26.04.2015 02:14 12,1 C 10,6 C 93 % 1007,1 hPa 0,0 l/m 0 min 2 min 0 W/m 10,5 km/h (2 Bft)
26.04.2015 02:16 12,1 C 10,6 C 93 % 1007,1 hPa 0,2 l/m 0 min 2 min 0 W/m 10,5 km/h (2 Bft)
26.04.2015 02:18 12,0 C 10,6 C 93 % 1007,0 hPa 0,0 l/m 0 min 2 min 0 W/m 8,4 km/h (2 Bft)
26.04.2015 02:20 12,0 C 10,6 C 93 % 1006,9 hPa 0,0 l/m 0 min 0 min 0 W/m 4,2 km/h (1 Bft)
26.04.2015 02:22 12,0 C 10,6 C 94 % 1006,8 hPa 0,0 l/m 0 min 0 min 0 W/m 6,3 km/h (2 Bft)
26.04.2015 02:24 12,0 C 10,6 C 94 % 1006,9 hPa 0,0 l/m 0 min 0 min 0 W/m 8,4 km/h (2 Bft)
26.04.2015 02:26 11,9 C 10,6 C 93 % 1006,9 hPa 0,0 l/m 0 min 0 min 0 W/m 6,3 km/h (2 Bft)
26.04.2015 02:28 11,9 C 10,6 C 93 % 1006,8 hPa 0,0 l/m 0 min 0 min 0 W/m 10,5 km/h (2 Bft)
26.04.2015 02:30 11,9 C 10,6 C 93 % 1006,8 hPa 0,0 l/m 0 min 0 min 0 W/m 6,3 km/h (2 Bft)
26.04.2015 02:32 11,9 C 10,6 C 94 % 1006,8 hPa 0,0 l/m 0 min 0 min 0 W/m 6,3 km/h (2 Bft)
26.04.2015 02:34 11,9 C 10,6 C 94 % 1006,8 hPa 0,0 l/m 0 min 0 min 0 W/m 8,4 km/h (2 Bft)
26.04.2015 02:36 11,9 C 10,6 C 94 % 1006,8 hPa 0,0 l/m 0 min 0 min 0 W/m 8,4 km/h (2 Bft)
26.04.2015 02:38 11,8 C 10,6 C 94 % 1006,8 hPa 0,0 l/m 0 min 0 min 0 W/m 8,4 km/h (2 Bft)
26.04.2015 02:40 11,8 C 10,6 C 94 % 1006,8 hPa 0,0 l/m 0 min 0 min 0 W/m 6,3 km/h (2 Bft)
26.04.2015 02:42 11,8 C 10,6 C 94 % 1006,7 hPa 0,0 l/m 0 min 0 min 0 W/m 6,3 km/h (2 Bft)
26.04.2015 02:44 11,8 C 10,6 C 94 % 1006,7 hPa 0,0 l/m 0 min 0 min 0 W/m 6,3 km/h (2 Bft)
26.04.2015 02:46 11,8 C 10,6 C 94 % 1006,7 hPa 0,0 l/m 0 min 0 min 0 W/m 8,4 km/h (2 Bft)
26.04.2015 02:48 11,8 C 10,0 C 94 % 1006,7 hPa 0,0 l/m 0 min 0 min 0 W/m 10,5 km/h (2 Bft)
26.04.2015 02:50 11,8 C 10,0 C 94 % 1006,7 hPa 0,0 l/m 0 min 0 min 0 W/m 8,4 km/h (2 Bft)
26.04.2015 02:52 11,8 C 10,0 C 94 % 1006,6 hPa 0,0 l/m 0 min 0 min 0 W/m 8,4 km/h (2 Bft)
26.04.2015 02:54 11,8 C 10,0 C 94 % 1006,7 hPa 0,0 l/m 0 min 0 min 0 W/m 10,5 km/h (2 Bft)
26.04.2015 02:56 11,7 C 10,0 C 94 % 1006,6 hPa 0,0 l/m 0 min 0 min 0 W/m 10,5 km/h (2 Bft)
26.04.2015 02:58 11,7 C 10,0 C 94 % 1006,6 hPa 0,0 l/m 0 min 0 min 0 W/m 10,5 km/h (2 Bft)
26.04.2015 03:00 11,7 C 10,0 C 94 % 1006,6 hPa 0,0 l/m 0 min 0 min 0 W/m 12,6 km/h (3 Bft)
26.04.2015 03:02 11,7 C 10,0 C 94 % 1006,6 hPa 0,0 l/m 0 min 0 min 0 W/m 14,6 km/h (3 Bft)
26.04.2015 03:04 11,7 C 10,0 C 94 % 1006,7 hPa 0,0 l/m 0 min 0 min 0 W/m 12,6 km/h (3 Bft)
26.04.2015 03:06 11,7 C 10,0 C 94 % 1006,6 hPa 0,0 l/m 0 min 0 min 0 W/m 12,6 km/h (3 Bft)
26.04.2015 03:08 11,7 C 10,0 C 94 % 1006,5 hPa 0,0 l/m 0 min 0 min 0 W/m 10,5 km/h (2 Bft)
26.04.2015 03:10 11,7 C 10,0 C 94 % 1006,5 hPa 0,0 l/m 0 min 0 min 0 W/m 12,6 km/h (3 Bft)
26.04.2015 03:12 11,7 C 10,0 C 94 % 1006,5 hPa 0,0 l/m 0 min 0 min 0 W/m 8,4 km/h (2 Bft)
26.04.2015 03:14 11,7 C 10,0 C 94 % 1006,6 hPa 0,0 l/m 0 min 0 min 0 W/m 10,5 km/h (2 Bft)
26.04.2015 03:16 11,7 C 10,0 C 95 % 1006,6 hPa 0,0 l/m 0 min 0 min 0 W/m 10,5 km/h (2 Bft)
26.04.2015 03:18 11,7 C 10,0 C 94 % 1006,5 hPa 0,0 l/m 0 min 0 min 0 W/m 10,5 km/h (2 Bft)
26.04.2015 03:20 11,7 C 10,0 C 94 % 1006,5 hPa 0,0 l/m 0 min 0 min 0 W/m 8,4 km/h (2 Bft)
26.04.2015 03:22 11,7 C 10,0 C 94 % 1006,5 hPa 0,0 l/m 0 min 0 min 0 W/m 8,4 km/h (2 Bft)
26.04.2015 03:24 11,7 C 10,0 C 95 % 1006,5 hPa 0,0 l/m 0 min 0 min 0 W/m 6,3 km/h (2 Bft)
26.04.2015 03:26 11,7 C 10,0 C 95 % 1006,5 hPa 0,0 l/m 0 min 0 min 0 W/m 8,4 km/h (2 Bft)
26.04.2015 03:28 11,7 C 10,0 C 95 % 1006,5 hPa 0,0 l/m 0 min 0 min 0 W/m 10,5 km/h (2 Bft)
26.04.2015 03:30 11,7 C 10,0 C 95 % 1006,5 hPa 0,0 l/m 0 min 0 min 0 W/m 8,4 km/h (2 Bft)
26.04.2015 03:32 11,7 C 10,0 C 95 % 1006,5 hPa 0,0 l/m 0 min 0 min 0 W/m 12,6 km/h (3 Bft)
26.04.2015 03:34 11,7 C 10,0 C 95 % 1006,5 hPa 0,0 l/m 0 min 0 min 0 W/m 12,6 km/h (3 Bft)
26.04.2015 03:36 11,7 C 10,0 C 95 % 1006,5 hPa 0,0 l/m 0 min 0 min 0 W/m 10,5 km/h (2 Bft)
26.04.2015 03:38 11,7 C 10,0 C 95 % 1006,6 hPa 0,0 l/m 0 min 0 min 0 W/m 8,4 km/h (2 Bft)
26.04.2015 03:40 11,7 C 10,0 C 95 % 1006,5 hPa 0,0 l/m 0 min 0 min 0 W/m 8,4 km/h (2 Bft)
26.04.2015 03:42 11,7 C 10,0 C 95 % 1006,5 hPa 0,0 l/m 0 min 0 min 0 W/m 8,4 km/h (2 Bft)
26.04.2015 03:44 11,7 C 10,0 C 95 % 1006,5 hPa 0,0 l/m 0 min 0 min 0 W/m 8,4 km/h (2 Bft)
26.04.2015 03:46 11,7 C 10,6 C 95 % 1006,4 hPa 0,0 l/m 0 min 0 min 0 W/m 8,4 km/h (2 Bft)
26.04.2015 03:48 11,7 C 10,6 C 95 % 1006,5 hPa 0,0 l/m 0 min 2 min 0 W/m 6,3 km/h (2 Bft)
26.04.2015 03:50 11,7 C 10,6 C 95 % 1006,4 hPa 0,0 l/m 0 min 2 min 0 W/m 6,3 km/h (2 Bft)
26.04.2015 03:52 11,7 C 10,6 C 95 % 1006,4 hPa 0,0 l/m 0 min 2 min 0 W/m 8,4 km/h (2 Bft)
26.04.2015 03:54 11,7 C 10,6 C 95 % 1006,4 hPa 0,0 l/m 0 min 2 min 0 W/m 6,3 km/h (2 Bft)
26.04.2015 03:56 11,6 C 10,6 C 95 % 1006,4 hPa 0,0 l/m 0 min 2 min 0 W/m 6,3 km/h (2 Bft)
26.04.2015 03:58 11,6 C 10,6 C 95 % 1006,5 hPa 0,0 l/m 0 min 2 min 0 W/m 8,4 km/h (2 Bft)
26.04.2015 04:00 11,6 C 10,6 C 95 % 1006,4 hPa 0,0 l/m 0 min 2 min 0 W/m 6,3 km/h (2 Bft)
26.04.2015 04:02 11,6 C 10,6 C 95 % 1006,5 hPa 0,0 l/m 0 min 2 min 0 W/m 4,2 km/h (1 Bft)
26.04.2015 04:04 11,6 C 10,6 C 95 % 1006,5 hPa 0,0 l/m 0 min 2 min 0 W/m 8,4 km/h (2 Bft)
26.04.2015 04:06 11,6 C 10,6 C 95 % 1006,5 hPa 0,0 l/m 0 min 0 min 0 W/m 10,5 km/h (2 Bft)
26.04.2015 04:08 11,6 C 10,6 C 95 % 1006,4 hPa 0,0 l/m 0 min 0 min 0 W/m 12,6 km/h (3 Bft)
26.04.2015 04:10 11,7 C 10,6 C 95 % 1006,4 hPa 0,0 l/m 0 min 2 min 0 W/m 14,6 km/h (3 Bft)
26.04.2015 04:12 11,7 C 10,6 C 96 % 1006,4 hPa 0,0 l/m 0 min 0 min 0 W/m 16,7 km/h (3 Bft)
26.04.2015 04:14 11,7 C 10,6 C 96 % 1006,3 hPa 0,0 l/m 0 min 0 min 0 W/m 10,5 km/h (2 Bft)
26.04.2015 04:16 11,7 C 10,6 C 96 % 1006,3 hPa 0,0 l/m 0 min 0 min 0 W/m 6,3 km/h (2 Bft)
26.04.2015 04:18 11,7 C 10,6 C 96 % 1006,3 hPa 0,0 l/m 0 min 0 min 0 W/m 12,6 km/h (3 Bft)
26.04.2015 04:20 11,7 C 10,6 C 96 % 1006,3 hPa 0,0 l/m 0 min 0 min 0 W/m 16,7 km/h (3 Bft)
26.04.2015 04:22 11,7 C 10,6 C 96 % 1006,3 hPa 0,0 l/m 0 min 0 min 0 W/m 10,5 km/h (2 Bft)
26.04.2015 04:24 11,7 C 10,0 C 96 % 1006,3 hPa 0,0 l/m 0 min 0 min 0 W/m 12,6 km/h (3 Bft)
26.04.2015 04:26 11,6 C 10,0 C 96 % 1006,2 hPa 0,0 l/m 0 min 0 min 0 W/m 8,4 km/h (2 Bft)
26.04.2015 04:28 11,6 C 10,0 C 96 % 1006,2 hPa 0,0 l/m 0 min 0 min 0 W/m 8,4 km/h (2 Bft)
26.04.2015 04:30 11,6 C 10,0 C 96 % 1006,2 hPa 0,0 l/m 0 min 0 min 0 W/m 8,4 km/h (2 Bft)
26.04.2015 04:32 11,6 C 10,0 C 96 % 1006,2 hPa 0,0 l/m 0 min 0 min 0 W/m 12,6 km/h (3 Bft)
26.04.2015 04:34 11,6 C 10,0 C 96 % 1006,3 hPa 0,0 l/m 0 min 0 min 0 W/m 8,4 km/h (2 Bft)
26.04.2015 04:36 11,6 C 10,0 C 96 % 1006,3 hPa 0,0 l/m 0 min 0 min 0 W/m 8,4 km/h (2 Bft)
26.04.2015 04:38 11,6 C 10,0 C 96 % 1006,3 hPa 0,0 l/m 0 min 0 min 0 W/m 8,4 km/h (2 Bft)
26.04.2015 04:40 11,6 C 10,0 C 96 % 1006,3 hPa 0,0 l/m 0 min 0 min 0 W/m 8,4 km/h (2 Bft)
26.04.2015 04:42 11,6 C 10,0 C 96 % 1006,3 hPa 0,0 l/m 0 min 0 min 0 W/m 6,3 km/h (2 Bft)
26.04.2015 04:44 11,6 C 10,0 C 96 % 1006,3 hPa 0,0 l/m 0 min 0 min 0 W/m 8,4 km/h (2 Bft)
26.04.2015 04:46 11,6 C 10,0 C 96 % 1006,2 hPa 0,0 l/m 0 min 0 min 0 W/m 6,3 km/h (2 Bft)
26.04.2015 04:48 11,6 C 10,0 C 96 % 1006,2 hPa 0,0 l/m 0 min 0 min 0 W/m 8,4 km/h (2 Bft)
26.04.2015 04:50 11,6 C 10,0 C 96 % 1006,3 hPa 0,0 l/m 0 min 0 min 0 W/m 10,5 km/h (2 Bft)
26.04.2015 04:52 11,6 C 10,6 C 96 % 1006,3 hPa 0,0 l/m 0 min 0 min 0 W/m 8,4 km/h (2 Bft)
26.04.2015 04:54 11,6 C 10,6 C 96 % 1006,3 hPa 0,0 l/m 0 min 0 min 0 W/m 8,4 km/h (2 Bft)
26.04.2015 04:56 11,6 C 10,6 C 96 % 1006,3 hPa 0,0 l/m 0 min 0 min 0 W/m 6,3 km/h (2 Bft)
26.04.2015 04:58 11,6 C 10,0 C 96 % 1006,2 hPa 0,0 l/m 0 min 0 min 0 W/m 10,5 km/h (2 Bft)
26.04.2015 05:00 11,6 C 10,0 C 96 % 1006,1 hPa 0,0 l/m 0 min 2 min 0 W/m 6,3 km/h (2 Bft)
26.04.2015 05:02 11,6 C 10,0 C 96 % 1006,0 hPa 0,0 l/m 0 min 0 min 0 W/m 6,3 km/h (2 Bft)
26.04.2015 05:04 11,6 C 10,0 C 96 % 1006,0 hPa 0,0 l/m 0 min 0 min 0 W/m 8,4 km/h (2 Bft)
26.04.2015 05:06 11,5 C 10,0 C 96 % 1006,0 hPa 0,0 l/m 0 min 0 min 0 W/m 4,2 km/h (1 Bft)
26.04.2015 05:08 11,5 C 10,0 C 96 % 1006,0 hPa 0,0 l/m 0 min 0 min 0 W/m 8,4 km/h (2 Bft)
26.04.2015 05:10 11,5 C 10,0 C 96 % 1005,9 hPa 0,0 l/m 0 min 0 min 0 W/m 12,6 km/h (3 Bft)
26.04.2015 05:12 11,5 C 10,0 C 96 % 1005,9 hPa 0,0 l/m 0 min 0 min 0 W/m 12,6 km/h (3 Bft)
26.04.2015 05:14 11,5 C 10,0 C 96 % 1005,9 hPa 0,0 l/m 0 min 0 min 0 W/m 6,3 km/h (2 Bft)
26.04.2015 05:16 11,5 C 10,0 C 96 % 1006,0 hPa 0,0 l/m 0 min 0 min 0 W/m 8,4 km/h (2 Bft)
26.04.2015 05:18 11,5 C 10,0 C 96 % 1006,0 hPa 0,0 l/m 0 min 0 min 0 W/m 12,6 km/h (3 Bft)
26.04.2015 05:20 11,5 C 10,0 C 96 % 1006,0 hPa 0,0 l/m 0 min 0 min 0 W/m 14,6 km/h (3 Bft)
26.04.2015 05:22 11,4 C 10,0 C 96 % 1006,0 hPa 0,0 l/m 0 min 0 min 0 W/m 10,5 km/h (2 Bft)
26.04.2015 05:24 11,5 C 10,0 C 96 % 1006,0 hPa 0,0 l/m 0 min 0 min 0 W/m 10,5 km/h (2 Bft)
26.04.2015 05:26 11,4 C 10,0 C 96 % 1006,0 hPa 0,0 l/m 0 min 0 min 0 W/m 8,4 km/h (2 Bft)
26.04.2015 05:28 11,4 C 10,0 C 96 % 1006,0 hPa 0,0 l/m 0 min 0 min 0 W/m 10,5 km/h (2 Bft)
26.04.2015 05:30 11,4 C 10,0 C 96 % 1006,0 hPa 0,0 l/m 0 min 0 min 0 W/m 10,5 km/h (2 Bft)
26.04.2015 05:32 11,4 C 10,0 C 96 % 1005,9 hPa 0,0 l/m 0 min 0 min 0 W/m 12,6 km/h (3 Bft)
26.04.2015 05:34 11,4 C 10,0 C 96 % 1006,0 hPa 0,0 l/m 0 min 0 min 0 W/m 14,6 km/h (3 Bft)
26.04.2015 05:36 11,4 C 10,0 C 96 % 1006,0 hPa 0,0 l/m 0 min 0 min 0 W/m 10,5 km/h (2 Bft)
26.04.2015 05:38 11,4 C 10,0 C 96 % 1006,0 hPa 0,0 l/m 0 min 0 min 0 W/m 12,6 km/h (3 Bft)
26.04.2015 05:40 11,4 C 10,0 C 96 % 1006,0 hPa 0,0 l/m 0 min 0 min 0 W/m 12,6 km/h (3 Bft)
26.04.2015 05:42 11,4 C 10,0 C 96 % 1006,0 hPa 0,0 l/m 0 min 0 min 0 W/m 12,6 km/h (3 Bft)
26.04.2015 05:44 11,4 C 10,0 C 96 % 1006,1 hPa 0,0 l/m 0 min 0 min 0 W/m 12,6 km/h (3 Bft)
26.04.2015 05:46 11,4 C 10,0 C 96 % 1006,0 hPa 0,0 l/m 0 min 0 min 0 W/m 12,6 km/h (3 Bft)
26.04.2015 05:48 11,4 C 10,0 C 96 % 1005,9 hPa 0,0 l/m 0 min 0 min 0 W/m 10,5 km/h (2 Bft)
26.04.2015 05:50 11,4 C 10,0 C 96 % 1005,9 hPa 0,0 l/m 0 min 0 min 0 W/m 14,6 km/h (3 Bft)
26.04.2015 05:52 11,4 C 10,0 C 96 % 1006,0 hPa 0,0 l/m 0 min 0 min 0 W/m 8,4 km/h (2 Bft)
26.04.2015 05:54 11,4 C 10,0 C 96 % 1006,0 hPa 0,0 l/m 0 min 0 min 0 W/m 14,6 km/h (3 Bft)
26.04.2015 05:56 11,4 C 10,0 C 96 % 1005,9 hPa 0,0 l/m 0 min 0 min 0 W/m 14,6 km/h (3 Bft)
26.04.2015 05:58 11,3 C 10,0 C 96 % 1006,0 hPa 0,0 l/m 0 min 0 min 0 W/m 10,5 km/h (2 Bft)
26.04.2015 06:00 11,3 C 10,0 C 96 % 1006,0 hPa 0,0 l/m 0 min 0 min 0 W/m 14,6 km/h (3 Bft)
26.04.2015 06:02 11,3 C 10,0 C 96 % 1005,9 hPa 0,0 l/m 0 min 0 min 0 W/m 12,6 km/h (3 Bft)
26.04.2015 06:06 11,4 C 10,0 C 96 % 1005,9 hPa 0,0 l/m 0 min 0 min 0 W/m 10,5 km/h (2 Bft)
26.04.2015 06:08 11,4 C 10,0 C 96 % 1005,9 hPa 0,0 l/m 0 min 0 min 0 W/m 12,6 km/h (3 Bft)
26.04.2015 06:10 11,4 C 10,0 C 96 % 1005,9 hPa 0,0 l/m 0 min 0 min 0 W/m 10,5 km/h (2 Bft)
26.04.2015 06:12 11,4 C 10,0 C 97 % 1005,9 hPa 0,0 l/m 0 min 0 min 0 W/m 12,6 km/h (3 Bft)
26.04.2015 06:14 11,4 C 10,0 C 97 % 1005,9 hPa 0,0 l/m 0 min 0 min 0 W/m 14,6 km/h (3 Bft)
26.04.2015 06:16 11,4 C 10,0 C 97 % 1005,9 hPa 0,0 l/m 0 min 0 min 0 W/m 16,7 km/h (3 Bft)
26.04.2015 06:18 11,4 C 10,0 C 97 % 1005,9 hPa 0,0 l/m 0 min 0 min 0 W/m 12,6 km/h (3 Bft)
26.04.2015 06:20 11,4 C 10,0 C 97 % 1005,9 hPa 0,0 l/m 0 min 0 min 0 W/m 12,6 km/h (3 Bft)
26.04.2015 06:22 11,4 C 10,0 C 97 % 1006,0 hPa 0,0 l/m 0 min 0 min 0 W/m 12,6 km/h (3 Bft)
26.04.2015 06:24 11,4 C 10,0 C 97 % 1006,0 hPa 0,0 l/m 0 min 0 min 0 W/m 14,6 km/h (3 Bft)
26.04.2015 06:26 11,4 C 10,0 C 97 % 1006,0 hPa 0,0 l/m 0 min 0 min 3 W/m 12,6 km/h (3 Bft)
26.04.2015 06:28 11,5 C 10,0 C 97 % 1006,0 hPa 0,0 l/m 0 min 0 min 5 W/m 16,7 km/h (3 Bft)
26.04.2015 06:30 11,5 C 10,0 C 97 % 1006,0 hPa 0,0 l/m 0 min 0 min 0 W/m 14,6 km/h (3 Bft)
26.04.2015 06:32 11,5 C 10,0 C 97 % 1006,1 hPa 0,0 l/m 0 min 0 min 2 W/m 12,6 km/h (3 Bft)
26.04.2015 06:34 11,5 C 10,0 C 97 % 1006,1 hPa 0,0 l/m 0 min 0 min 5 W/m 12,6 km/h (3 Bft)
26.04.2015 06:36 11,6 C 10,0 C 97 % 1006,1 hPa 0,0 l/m 0 min 0 min 5 W/m 14,6 km/h (3 Bft)
26.04.2015 06:38 11,6 C 10,0 C 97 % 1006,1 hPa 0,0 l/m 0 min 0 min 5 W/m 12,6 km/h (3 Bft)
26.04.2015 06:40 11,6 C 10,0 C 97 % 1006,1 hPa 0,0 l/m 0 min 0 min 5 W/m 6,3 km/h (2 Bft)
26.04.2015 06:42 11,6 C 10,6 C 97 % 1006,2 hPa 0,0 l/m 0 min 0 min 5 W/m 12,6 km/h (3 Bft)
26.04.2015 06:44 11,6 C 10,6 C 97 % 1006,1 hPa 0,0 l/m 0 min 0 min 5 W/m 12,6 km/h (3 Bft)
26.04.2015 06:46 11,6 C 10,6 C 97 % 1006,1 hPa 0,0 l/m 0 min 0 min 5 W/m 14,6 km/h (3 Bft)
26.04.2015 06:48 11,6 C 10,6 C 97 % 1006,2 hPa 0,0 l/m 0 min 0 min 5 W/m 12,6 km/h (3 Bft)
26.04.2015 06:50 11,6 C 10,6 C 97 % 1006,2 hPa 0,0 l/m 0 min 0 min 7 W/m 12,6 km/h (3 Bft)
26.04.2015 06:52 11,6 C 10,6 C 97 % 1006,2 hPa 0,0 l/m 0 min 0 min 7 W/m 10,5 km/h (2 Bft)
26.04.2015 06:54 11,6 C 10,6 C 97 % 1006,2 hPa 0,0 l/m 0 min 0 min 7 W/m 10,5 km/h (2 Bft)
26.04.2015 06:56 11,7 C 10,6 C 97 % 1006,3 hPa 0,0 l/m 0 min 0 min 7 W/m 10,5 km/h (2 Bft)
26.04.2015 06:58 11,7 C 10,6 C 97 % 1006,3 hPa 0,0 l/m 0 min 0 min 7 W/m 12,6 km/h (3 Bft)
26.04.2015 07:00 11,7 C 10,6 C 97 % 1006,3 hPa 0,0 l/m 0 min 0 min 8 W/m 12,6 km/h (3 Bft)
26.04.2015 07:02 11,7 C 10,6 C 97 % 1006,3 hPa 0,0 l/m 0 min 0 min 8 W/m 10,5 km/h (2 Bft)
26.04.2015 07:04 11,7 C 10,6 C 97 % 1006,3 hPa 0,0 l/m 0 min 0 min 9 W/m 8,4 km/h (2 Bft)
26.04.2015 07:06 11,7 C 10,6 C 97 % 1006,3 hPa 0,0 l/m 0 min 0 min 10 W/m 8,4 km/h (2 Bft)
26.04.2015 07:08 11,7 C 10,6 C 97 % 1006,3 hPa 0,0 l/m 0 min 0 min 12 W/m 8,4 km/h (2 Bft)
26.04.2015 07:10 11,7 C 10,6 C 97 % 1006,3 hPa 0,0 l/m 0 min 0 min 15 W/m 10,5 km/h (2 Bft)
26.04.2015 07:12 11,7 C 10,6 C 97 % 1006,3 hPa 0,0 l/m 0 min 0 min 22 W/m 12,6 km/h (3 Bft)
26.04.2015 07:14 11,7 C 10,6 C 97 % 1006,3 hPa 0,0 l/m 0 min 0 min 27 W/m 12,6 km/h (3 Bft)
26.04.2015 07:16 11,8 C 10,6 C 97 % 1006,3 hPa 0,0 l/m 0 min 0 min 33 W/m 8,4 km/h (2 Bft)
26.04.2015 07:18 11,8 C 10,6 C 97 % 1006,4 hPa 0,0 l/m 0 min 0 min 33 W/m 10,5 km/h (2 Bft)
26.04.2015 07:20 11,8 C 10,6 C 97 % 1006,4 hPa 0,0 l/m 0 min 0 min 39 W/m 14,6 km/h (3 Bft)
26.04.2015 07:22 11,8 C 10,6 C 97 % 1006,4 hPa 0,0 l/m 0 min 0 min 41 W/m 12,6 km/h (3 Bft)
26.04.2015 07:24 11,8 C 10,6 C 97 % 1006,4 hPa 0,0 l/m 0 min 0 min 40 W/m 14,6 km/h (3 Bft)
26.04.2015 07:26 11,9 C 10,6 C 97 % 1006,4 hPa 0,0 l/m 0 min 0 min 41 W/m 12,6 km/h (3 Bft)
26.04.2015 07:28 11,9 C 10,6 C 97 % 1006,4 hPa 0,0 l/m 0 min 0 min 43 W/m 10,5 km/h (2 Bft)
26.04.2015 07:30 11,9 C 10,6 C 97 % 1006,4 hPa 0,0 l/m 0 min 0 min 45 W/m 12,6 km/h (3 Bft)
26.04.2015 07:32 11,9 C 10,6 C 97 % 1006,4 hPa 0,0 l/m 0 min 0 min 53 W/m 12,6 km/h (3 Bft)
26.04.2015 07:34 11,9 C 10,6 C 97 % 1006,4 hPa 0,0 l/m 0 min 0 min 76 W/m 10,5 km/h (2 Bft)
26.04.2015 07:36 11,9 C 10,6 C 97 % 1006,4 hPa 0,0 l/m 0 min 0 min 83 W/m 12,6 km/h (3 Bft)
26.04.2015 07:38 12,0 C 10,6 C 97 % 1006,4 hPa 0,0 l/m 0 min 0 min 93 W/m 10,5 km/h (2 Bft)
26.04.2015 07:40 12,0 C 11,1 C 97 % 1006,4 hPa 0,0 l/m 0 min 0 min 97 W/m 8,4 km/h (2 Bft)
26.04.2015 07:42 12,0 C 11,1 C 97 % 1006,4 hPa 0,0 l/m 2 min 0 min 112 W/m 8,4 km/h (2 Bft)
26.04.2015 07:44 12,1 C 11,1 C 97 % 1006,4 hPa 0,0 l/m 2 min 0 min 137 W/m 12,6 km/h (3 Bft)
26.04.2015 07:46 12,1 C 11,1 C 97 % 1006,5 hPa 0,0 l/m 2 min 0 min 145 W/m 8,4 km/h (2 Bft)
26.04.2015 07:48 12,1 C 11,1 C 97 % 1006,5 hPa 0,0 l/m 2 min 0 min 125 W/m 10,5 km/h (2 Bft)
26.04.2015 07:50 12,2 C 11,1 C 97 % 1006,5 hPa 0,0 l/m 0 min 0 min 91 W/m 12,6 km/h (3 Bft)
26.04.2015 07:52 12,2 C 11,1 C 97 % 1006,5 hPa 0,0 l/m 0 min 0 min 73 W/m 14,6 km/h (3 Bft)
26.04.2015 07:54 12,2 C 11,1 C 97 % 1006,4 hPa 0,0 l/m 0 min 0 min 62 W/m 14,6 km/h (3 Bft)
26.04.2015 07:56 12,3 C 11,1 C 97 % 1006,5 hPa 0,0 l/m 0 min 0 min 52 W/m 10,5 km/h (2 Bft)
26.04.2015 07:58 12,3 C 11,1 C 97 % 1006,5 hPa 0,0 l/m 0 min 0 min 42 W/m 14,6 km/h (3 Bft)
26.04.2015 08:00 12,3 C 11,1 C 97 % 1006,5 hPa 0,0 l/m 0 min 0 min 36 W/m 12,6 km/h (3 Bft)
26.04.2015 08:02 12,3 C 11,1 C 97 % 1006,4 hPa 0,0 l/m 0 min 0 min 27 W/m 14,6 km/h (3 Bft)
26.04.2015 08:04 12,3 C 11,1 C 97 % 1006,5 hPa 0,0 l/m 0 min 0 min 30 W/m 12,6 km/h (3 Bft)
26.04.2015 08:06 12,3 C 11,1 C 97 % 1006,4 hPa 0,0 l/m 0 min 0 min 43 W/m 16,7 km/h (3 Bft)
26.04.2015 08:08 12,3 C 11,1 C 97 % 1006,4 hPa 0,0 l/m 0 min 0 min 52 W/m 10,5 km/h (2 Bft)
26.04.2015 08:10 12,3 C 11,1 C 97 % 1006,5 hPa 0,0 l/m 0 min 0 min 57 W/m 10,5 km/h (2 Bft)
26.04.2015 08:12 12,3 C 11,1 C 97 % 1006,5 hPa 0,0 l/m 0 min 0 min 68 W/m 12,6 km/h (3 Bft)
26.04.2015 08:14 12,4 C 11,1 C 97 % 1006,5 hPa 0,0 l/m 0 min 0 min 46 W/m 8,4 km/h (2 Bft)
26.04.2015 08:16 12,4 C 11,1 C 97 % 1006,5 hPa 0,0 l/m 0 min 0 min 46 W/m 10,5 km/h (2 Bft)
26.04.2015 08:18 12,4 C 11,1 C 97 % 1006,5 hPa 0,0 l/m 0 min 0 min 50 W/m 16,7 km/h (3 Bft)
26.04.2015 08:20 12,4 C 11,1 C 97 % 1006,5 hPa 0,0 l/m 0 min 0 min 41 W/m 8,4 km/h (2 Bft)
26.04.2015 08:22 12,4 C 11,1 C 97 % 1006,5 hPa 0,0 l/m 0 min 0 min 39 W/m 10,5 km/h (2 Bft)
26.04.2015 08:24 12,4 C 11,1 C 97 % 1006,6 hPa 0,0 l/m 0 min 0 min 38 W/m 12,6 km/h (3 Bft)
26.04.2015 08:26 12,4 C 11,1 C 97 % 1006,5 hPa 0,0 l/m 0 min 0 min 61 W/m 16,7 km/h (3 Bft)
26.04.2015 08:28 12,4 C 11,1 C 97 % 1006,6 hPa 0,0 l/m 0 min 0 min 74 W/m 16,7 km/h (3 Bft)
26.04.2015 08:30 12,4 C 11,1 C 97 % 1006,5 hPa 0,0 l/m 0 min 0 min 82 W/m 10,5 km/h (2 Bft)
26.04.2015 08:32 12,4 C 11,1 C 97 % 1006,6 hPa 0,0 l/m 0 min 0 min 76 W/m 8,4 km/h (2 Bft)
26.04.2015 08:34 12,4 C 11,1 C 97 % 1006,6 hPa 0,0 l/m 0 min 0 min 88 W/m 12,6 km/h (3 Bft)
26.04.2015 08:36 12,5 C 11,1 C 97 % 1006,6 hPa 0,0 l/m 0 min 0 min 90 W/m 16,7 km/h (3 Bft)
26.04.2015 08:38 12,5 C 11,7 C 97 % 1006,6 hPa 0,0 l/m 0 min 0 min 88 W/m 12,6 km/h (3 Bft)
26.04.2015 08:40 12,6 C 11,7 C 97 % 1006,6 hPa 0,0 l/m 0 min 0 min 89 W/m 16,7 km/h (3 Bft)
26.04.2015 08:42 12,6 C 11,7 C 97 % 1006,5 hPa 0,0 l/m 0 min 0 min 90 W/m 16,7 km/h (3 Bft)
26.04.2015 08:44 12,6 C 11,7 C 97 % 1006,5 hPa 0,0 l/m 0 min 0 min 109 W/m 16,7 km/h (3 Bft)
26.04.2015 08:46 12,6 C 11,7 C 97 % 1006,5 hPa 0,0 l/m 0 min 0 min 147 W/m 8,4 km/h (2 Bft)
26.04.2015 08:48 12,7 C 11,7 C 97 % 1006,5 hPa 0,0 l/m 0 min 0 min 151 W/m 14,6 km/h (3 Bft)
26.04.2015 08:50 12,7 C 11,7 C 97 % 1006,5 hPa 0,0 l/m 0 min 0 min 130 W/m 16,7 km/h (3 Bft)
26.04.2015 08:52 12,7 C 11,7 C 97 % 1006,6 hPa 0,0 l/m 0 min 0 min 120 W/m 16,7 km/h (3 Bft)
26.04.2015 08:54 12,7 C 11,7 C 97 % 1006,5 hPa 0,0 l/m 0 min 0 min 130 W/m 20,9 km/h (4 Bft)
26.04.2015 08:56 12,7 C 11,7 C 97 % 1006,6 hPa 0,0 l/m 0 min 0 min 152 W/m 27,2 km/h (4 Bft)
26.04.2015 08:58 12,7 C 11,7 C 97 % 1006,6 hPa 0,0 l/m 2 min 0 min 226 W/m 18,8 km/h (3 Bft)
26.04.2015 09:00 12,7 C 11,7 C 97 % 1006,5 hPa 0,0 l/m 2 min 0 min 277 W/m 12,6 km/h (3 Bft)
26.04.2015 09:02 12,7 C 11,7 C 97 % 1006,5 hPa 0,0 l/m 2 min 0 min 283 W/m 16,7 km/h (3 Bft)
26.04.2015 09:04 12,7 C 11,7 C 97 % 1006,5 hPa 0,0 l/m 2 min 0 min 267 W/m 20,9 km/h (4 Bft)
26.04.2015 09:06 12,8 C 11,7 C 97 % 1006,5 hPa 0,0 l/m 0 min 0 min 199 W/m 16,7 km/h (3 Bft)
26.04.2015 09:08 12,8 C 11,7 C 97 % 1006,5 hPa 0,0 l/m 2 min 0 min 254 W/m 12,6 km/h (3 Bft)
26.04.2015 09:10 12,8 C 11,7 C 97 % 1006,4 hPa 0,0 l/m 2 min 0 min 315 W/m 18,8 km/h (3 Bft)
26.04.2015 09:12 12,9 C 11,7 C 97 % 1006,5 hPa 0,0 l/m 2 min 0 min 285 W/m 18,8 km/h (3 Bft)
26.04.2015 09:14 12,9 C 11,7 C 97 % 1006,5 hPa 0,0 l/m 2 min 0 min 381 W/m 14,6 km/h (3 Bft)
26.04.2015 09:16 13,0 C 11,7 C 97 % 1006,5 hPa 0,0 l/m 2 min 0 min 419 W/m 23,0 km/h (4 Bft)
26.04.2015 09:18 13,1 C 11,7 C 97 % 1006,5 hPa 0,0 l/m 2 min 0 min 473 W/m 18,8 km/h (3 Bft)
26.04.2015 09:20 13,1 C 11,7 C 97 % 1006,4 hPa 0,0 l/m 2 min 0 min 379 W/m 18,8 km/h (3 Bft)
26.04.2015 09:22 13,1 C 11,7 C 97 % 1006,5 hPa 0,0 l/m 2 min 0 min 308 W/m 20,9 km/h (4 Bft)
26.04.2015 09:24 13,2 C 11,7 C 97 % 1006,5 hPa 0,0 l/m 2 min 0 min 479 W/m 18,8 km/h (3 Bft)
26.04.2015 09:26 13,3 C 11,7 C 97 % 1006,5 hPa 0,0 l/m 2 min 0 min 549 W/m 14,6 km/h (3 Bft)
26.04.2015 09:28 13,3 C 12,2 C 97 % 1006,5 hPa 0,0 l/m 2 min 0 min 594 W/m 23,0 km/h (4 Bft)
26.04.2015 09:30 13,4 C 12,2 C 97 % 1006,5 hPa 0,0 l/m 2 min 0 min 353 W/m 23,0 km/h (4 Bft)
26.04.2015 09:32 13,6 C 12,2 C 96 % 1006,4 hPa 0,0 l/m 2 min 0 min 418 W/m 18,8 km/h (3 Bft)
26.04.2015 09:34 13,7 C 12,8 C 97 % 1006,5 hPa 0,0 l/m 2 min 0 min 440 W/m 18,8 km/h (3 Bft)
26.04.2015 09:36 13,7 C 12,8 C 96 % 1006,5 hPa 0,0 l/m 2 min 0 min 410 W/m 18,8 km/h (3 Bft)
26.04.2015 09:38 13,8 C 12,8 C 96 % 1006,4 hPa 0,0 l/m 2 min 0 min 373 W/m 18,8 km/h (3 Bft)
26.04.2015 09:40 13,9 C 12,8 C 96 % 1006,5 hPa 0,0 l/m 0 min 0 min 167 W/m 18,8 km/h (3 Bft)
26.04.2015 09:42 13,9 C 12,2 C 96 % 1006,5 hPa 0,0 l/m 0 min 0 min 184 W/m 16,7 km/h (3 Bft)
26.04.2015 09:44 13,9 C 12,2 C 95 % 1006,5 hPa 0,0 l/m 0 min 0 min 180 W/m 14,6 km/h (3 Bft)
26.04.2015 09:46 14,0 C 12,2 C 95 % 1006,5 hPa 0,0 l/m 0 min 0 min 177 W/m 18,8 km/h (3 Bft)
26.04.2015 09:48 14,0 C 12,2 C 94 % 1006,5 hPa 0,0 l/m 0 min 0 min 214 W/m 14,6 km/h (3 Bft)
26.04.2015 09:50 14,0 C 12,8 C 94 % 1006,5 hPa 0,0 l/m 2 min 0 min 311 W/m 16,7 km/h (3 Bft)
26.04.2015 09:52 14,1 C 12,8 C 94 % 1006,5 hPa 0,0 l/m 2 min 0 min 314 W/m 20,9 km/h (4 Bft)
26.04.2015 09:54 14,1 C 12,8 C 93 % 1006,5 hPa 0,0 l/m 0 min 0 min 228 W/m 16,7 km/h (3 Bft)
26.04.2015 09:56 14,2 C 12,8 C 93 % 1006,5 hPa 0,0 l/m 2 min 0 min 303 W/m 18,8 km/h (3 Bft)
26.04.2015 09:58 14,2 C 12,8 C 92 % 1006,5 hPa 0,0 l/m 2 min 0 min 383 W/m 25,1 km/h (4 Bft)
26.04.2015 10:00 14,2 C 13,3 C 92 % 1006,5 hPa 0,0 l/m 2 min 0 min 354 W/m 23,0 km/h (4 Bft)
26.04.2015 10:02 14,2 C 12,8 C 91 % 1006,5 hPa 0,0 l/m 2 min 0 min 313 W/m 18,8 km/h (3 Bft)
26.04.2015 10:04 14,2 C 12,8 C 91 % 1006,5 hPa 0,0 l/m 0 min 0 min 259 W/m 12,6 km/h (3 Bft)
26.04.2015 10:06 14,2 C 12,8 C 90 % 1006,5 hPa 0,0 l/m 0 min 0 min 248 W/m 12,6 km/h (3 Bft)
26.04.2015 10:08 14,2 C 12,8 C 90 % 1006,5 hPa 0,0 l/m 0 min 0 min 272 W/m 20,9 km/h (4 Bft)
26.04.2015 10:10 14,3 C 12,8 C 90 % 1006,5 hPa 0,0 l/m 0 min 0 min 276 W/m 20,9 km/h (4 Bft)
26.04.2015 10:12 14,3 C 12,8 C 89 % 1006,5 hPa 0,0 l/m 0 min 0 min 274 W/m 25,1 km/h (4 Bft)
26.04.2015 10:14 14,3 C 12,8 C 88 % 1006,5 hPa 0,0 l/m 0 min 0 min 280 W/m 20,9 km/h (4 Bft)
26.04.2015 10:16 14,3 C 12,8 C 88 % 1006,5 hPa 0,0 l/m 2 min 0 min 315 W/m 18,8 km/h (3 Bft)
26.04.2015 10:18 14,3 C 12,8 C 88 % 1006,5 hPa 0,0 l/m 2 min 0 min 300 W/m 20,9 km/h (4 Bft)
26.04.2015 10:20 14,4 C 12,8 C 87 % 1006,5 hPa 0,0 l/m 2 min 0 min 316 W/m 16,7 km/h (3 Bft)
26.04.2015 10:22 14,4 C 12,8 C 87 % 1006,6 hPa 0,0 l/m 2 min 0 min 322 W/m 20,9 km/h (4 Bft)
26.04.2015 10:24 14,5 C 13,3 C 87 % 1006,6 hPa 0,0 l/m 2 min 0 min 342 W/m 18,8 km/h (3 Bft)
26.04.2015 10:26 14,6 C 13,3 C 87 % 1006,6 hPa 0,0 l/m 2 min 0 min 338 W/m 20,9 km/h (4 Bft)
26.04.2015 10:28 14,6 C 13,3 C 87 % 1006,6 hPa 0,0 l/m 0 min 0 min 291 W/m 20,9 km/h (4 Bft)
26.04.2015 10:30 14,6 C 13,3 C 87 % 1006,7 hPa 0,0 l/m 0 min 0 min 258 W/m 27,2 km/h (4 Bft)
26.04.2015 10:32 14,7 C 13,3 C 86 % 1006,7 hPa 0,0 l/m 0 min 0 min 277 W/m 16,7 km/h (3 Bft)
26.04.2015 10:34 14,7 C 13,3 C 86 % 1006,7 hPa 0,0 l/m 2 min 0 min 322 W/m 16,7 km/h (3 Bft)
26.04.2015 10:36 14,8 C 13,9 C 86 % 1006,6 hPa 0,0 l/m 2 min 0 min 322 W/m 14,6 km/h (3 Bft)
26.04.2015 10:38 14,8 C 13,9 C 86 % 1006,6 hPa 0,0 l/m 2 min 0 min 448 W/m 20,9 km/h (4 Bft)
26.04.2015 10:40 15,0 C 14,4 C 86 % 1006,6 hPa 0,0 l/m 2 min 0 min 854 W/m 20,9 km/h (4 Bft)
26.04.2015 10:42 15,1 C 14,4 C 86 % 1006,5 hPa 0,0 l/m 2 min 0 min 942 W/m 25,1 km/h (4 Bft)
26.04.2015 10:44 15,2 C 15,0 C 85 % 1006,5 hPa 0,0 l/m 2 min 0 min 804 W/m 18,8 km/h (3 Bft)
26.04.2015 10:46 15,4 C 15,0 C 85 % 1006,5 hPa 0,0 l/m 2 min 0 min 710 W/m 14,6 km/h (3 Bft)
26.04.2015 10:48 15,6 C 15,0 C 85 % 1006,5 hPa 0,0 l/m 2 min 0 min 418 W/m 14,6 km/h (3 Bft)
26.04.2015 10:50 15,7 C 15,0 C 85 % 1006,6 hPa 0,0 l/m 2 min 0 min 374 W/m 12,6 km/h (3 Bft)
26.04.2015 10:52 15,8 C 15,0 C 84 % 1006,6 hPa 0,0 l/m 0 min 0 min 307 W/m 14,6 km/h (3 Bft)
26.04.2015 10:54 15,9 C 14,4 C 83 % 1006,5 hPa 0,0 l/m 0 min 0 min 288 W/m 14,6 km/h (3 Bft)
26.04.2015 10:56 16,0 C 14,4 C 83 % 1006,6 hPa 0,0 l/m 2 min 0 min 374 W/m 16,7 km/h (3 Bft)
26.04.2015 10:58 16,1 C 14,4 C 83 % 1006,6 hPa 0,0 l/m 2 min 0 min 392 W/m 18,8 km/h (3 Bft)
26.04.2015 11:00 16,1 C 14,4 C 83 % 1006,6 hPa 0,0 l/m 2 min 0 min 399 W/m 14,6 km/h (3 Bft)
26.04.2015 11:02 16,1 C 14,4 C 82 % 1006,6 hPa 0,0 l/m 0 min 0 min 287 W/m 20,9 km/h (4 Bft)
26.04.2015 11:04 16,1 C 14,4 C 81 % 1006,6 hPa 0,0 l/m 0 min 0 min 226 W/m 16,7 km/h (3 Bft)
26.04.2015 11:06 16,1 C 14,4 C 81 % 1006,6 hPa 0,0 l/m 0 min 0 min 257 W/m 18,8 km/h (3 Bft)
26.04.2015 11:08 16,0 C 14,4 C 81 % 1006,6 hPa 0,0 l/m 0 min 0 min 253 W/m 23,0 km/h (4 Bft)
26.04.2015 11:10 16,0 C 13,9 C 81 % 1006,7 hPa 0,0 l/m 0 min 0 min 218 W/m 18,8 km/h (3 Bft)
26.04.2015 11:12 15,9 C 13,9 C 81 % 1006,7 hPa 0,0 l/m 0 min 0 min 235 W/m 16,7 km/h (3 Bft)
26.04.2015 11:14 15,9 C 13,9 C 81 % 1006,6 hPa 0,0 l/m 0 min 0 min 202 W/m 14,6 km/h (3 Bft)
26.04.2015 11:16 15,9 C 13,9 C 81 % 1006,7 hPa 0,0 l/m 0 min 0 min 231 W/m 10,5 km/h (2 Bft)
26.04.2015 11:18 15,8 C 13,9 C 81 % 1006,7 hPa 0,0 l/m 0 min 0 min 252 W/m 12,6 km/h (3 Bft)
26.04.2015 11:20 15,8 C 14,4 C 82 % 1006,7 hPa 0,0 l/m 0 min 0 min 310 W/m 12,6 km/h (3 Bft)
26.04.2015 11:22 15,8 C 14,4 C 82 % 1006,7 hPa 0,0 l/m 0 min 0 min 315 W/m 18,8 km/h (3 Bft)
26.04.2015 11:24 15,8 C 14,4 C 82 % 1006,7 hPa 0,0 l/m 0 min 0 min 317 W/m 23,0 km/h (4 Bft)
26.04.2015 11:26 15,8 C 14,4 C 81 % 1006,7 hPa 0,0 l/m 2 min 0 min 398 W/m 25,1 km/h (4 Bft)
26.04.2015 11:28 15,8 C 14,4 C 81 % 1006,6 hPa 0,0 l/m 2 min 0 min 362 W/m 18,8 km/h (3 Bft)
26.04.2015 11:30 15,8 C 14,4 C 81 % 1006,7 hPa 0,0 l/m 2 min 0 min 424 W/m 18,8 km/h (3 Bft)
26.04.2015 11:32 15,8 C 14,4 C 82 % 1006,6 hPa 0,0 l/m 2 min 0 min 494 W/m 14,6 km/h (3 Bft)
26.04.2015 11:34 15,9 C 14,4 C 82 % 1006,6 hPa 0,0 l/m 2 min 0 min 477 W/m 14,6 km/h (3 Bft)
26.04.2015 11:36 15,9 C 14,4 C 81 % 1006,6 hPa 0,0 l/m 2 min 0 min 494 W/m 18,8 km/h (3 Bft)
26.04.2015 11:38 15,9 C 15,0 C 81 % 1006,5 hPa 0,0 l/m 2 min 0 min 407 W/m 18,8 km/h (3 Bft)
26.04.2015 11:40 16,0 C 15,0 C 80 % 1006,5 hPa 0,0 l/m 2 min 0 min 390 W/m 16,7 km/h (3 Bft)
26.04.2015 11:42 16,1 C 15,0 C 80 % 1006,5 hPa 0,0 l/m 2 min 0 min 469 W/m 14,6 km/h (3 Bft)
26.04.2015 11:44 16,1 C 15,0 C 80 % 1006,5 hPa 0,0 l/m 2 min 0 min 490 W/m 14,6 km/h (3 Bft)
26.04.2015 11:46 16,2 C 15,0 C 81 % 1006,5 hPa 0,0 l/m 2 min 0 min 425 W/m 10,5 km/h (2 Bft)
26.04.2015 11:48 16,3 C 15,0 C 81 % 1006,4 hPa 0,0 l/m 2 min 0 min 399 W/m 12,6 km/h (3 Bft)
26.04.2015 11:50 16,4 C 15,6 C 81 % 1006,4 hPa 0,0 l/m 2 min 0 min 394 W/m 16,7 km/h (3 Bft)
26.04.2015 11:52 16,4 C 15,6 C 80 % 1006,4 hPa 0,0 l/m 2 min 0 min 399 W/m 25,1 km/h (4 Bft)
26.04.2015 11:54 16,5 C 15,6 C 79 % 1006,4 hPa 0,0 l/m 2 min 0 min 466 W/m 20,9 km/h (4 Bft)
26.04.2015 11:56 16,6 C 15,6 C 79 % 1006,4 hPa 0,0 l/m 2 min 0 min 489 W/m 20,9 km/h (4 Bft)
26.04.2015 11:58 16,7 C 15,6 C 79 % 1006,4 hPa 0,0 l/m 2 min 0 min 607 W/m 18,8 km/h (3 Bft)
26.04.2015 12:00 16,8 C 16,1 C 79 % 1006,4 hPa 0,0 l/m 2 min 0 min 480 W/m 18,8 km/h (3 Bft)
26.04.2015 12:02 16,8 C 15,6 C 78 % 1006,4 hPa 0,0 l/m 2 min 0 min 395 W/m 18,8 km/h (3 Bft)
26.04.2015 12:06 16,9 C 15,0 C 76 % 1006,3 hPa 0,0 l/m 0 min 0 min 324 W/m 16,7 km/h (3 Bft)
26.04.2015 12:08 16,9 C 15,0 C 76 % 1006,2 hPa 0,0 l/m 0 min 0 min 270 W/m 25,1 km/h (4 Bft)
26.04.2015 12:10 16,9 C 15,0 C 76 % 1006,4 hPa 0,0 l/m 0 min 0 min 265 W/m 12,6 km/h (3 Bft)
26.04.2015 12:12 16,9 C 15,0 C 76 % 1006,3 hPa 0,0 l/m 0 min 0 min 267 W/m 16,7 km/h (3 Bft)
26.04.2015 12:14 16,8 C 15,0 C 76 % 1006,3 hPa 0,0 l/m 0 min 0 min 277 W/m 16,7 km/h (3 Bft)
26.04.2015 12:16 16,8 C 15,0 C 76 % 1006,3 hPa 0,0 l/m 0 min 0 min 287 W/m 16,7 km/h (3 Bft)
26.04.2015 12:18 16,8 C 15,0 C 76 % 1006,3 hPa 0,0 l/m 0 min 0 min 266 W/m 18,8 km/h (3 Bft)
26.04.2015 12:20 16,8 C 15,0 C 76 % 1006,4 hPa 0,0 l/m 0 min 2 min 254 W/m 18,8 km/h (3 Bft)
26.04.2015 12:22 16,8 C 14,4 C 76 % 1006,2 hPa 0,0 l/m 0 min 0 min 258 W/m 14,6 km/h (3 Bft)
26.04.2015 12:24 16,7 C 14,4 C 77 % 1006,3 hPa 0,0 l/m 0 min 2 min 241 W/m 12,6 km/h (3 Bft)
26.04.2015 12:26 16,8 C 14,4 C 78 % 1006,3 hPa 0,0 l/m 0 min 2 min 226 W/m 14,6 km/h (3 Bft)
26.04.2015 12:28 16,8 C 14,4 C 78 % 1006,2 hPa 0,0 l/m 0 min 2 min 221 W/m 14,6 km/h (3 Bft)
26.04.2015 12:30 16,7 C 13,9 C 79 % 1006,3 hPa 0,0 l/m 0 min 0 min 212 W/m 18,8 km/h (3 Bft)
26.04.2015 12:32 16,7 C 13,9 C 79 % 1006,3 hPa 0,0 l/m 0 min 0 min 202 W/m 12,6 km/h (3 Bft)
26.04.2015 12:34 16,7 C 13,9 C 79 % 1006,3 hPa 0,0 l/m 0 min 0 min 202 W/m 10,5 km/h (2 Bft)
26.04.2015 12:36 16,7 C 13,9 C 79 % 1006,2 hPa 0,0 l/m 0 min 0 min 207 W/m 12,6 km/h (3 Bft)
26.04.2015 12:38 16,7 C 13,9 C 79 % 1006,3 hPa 0,0 l/m 0 min 0 min 215 W/m 12,6 km/h (3 Bft)
26.04.2015 12:40 16,7 C 13,9 C 79 % 1006,2 hPa 0,0 l/m 0 min 0 min 218 W/m 14,6 km/h (3 Bft)
26.04.2015 12:42 16,6 C 13,9 C 79 % 1006,2 hPa 0,0 l/m 0 min 0 min 215 W/m 14,6 km/h (3 Bft)
26.04.2015 12:44 16,6 C 13,9 C 78 % 1006,2 hPa 0,0 l/m 0 min 0 min 220 W/m 12,6 km/h (3 Bft)
26.04.2015 12:46 16,6 C 13,9 C 78 % 1006,2 hPa 0,0 l/m 0 min 0 min 228 W/m 16,7 km/h (3 Bft)
26.04.2015 12:48 16,5 C 14,4 C 78 % 1006,3 hPa 0,0 l/m 0 min 0 min 225 W/m 12,6 km/h (3 Bft)
26.04.2015 12:50 16,5 C 14,4 C 79 % 1006,3 hPa 0,0 l/m 0 min 0 min 215 W/m 16,7 km/h (3 Bft)
26.04.2015 12:52 16,4 C 14,4 C 78 % 1006,3 hPa 0,0 l/m 0 min 0 min 220 W/m 18,8 km/h (3 Bft)
26.04.2015 12:54 16,4 C 14,4 C 79 % 1006,2 hPa 0,0 l/m 0 min 2 min 233 W/m 14,6 km/h (3 Bft)
26.04.2015 12:56 16,4 C 14,4 C 79 % 1006,2 hPa 0,0 l/m 0 min 2 min 246 W/m 14,6 km/h (3 Bft)
26.04.2015 12:58 16,4 C 13,9 C 79 % 1006,3 hPa 0,0 l/m 0 min 2 min 244 W/m 16,7 km/h (3 Bft)
26.04.2015 13:00 16,4 C 13,9 C 79 % 1006,2 hPa 0,0 l/m 0 min 0 min 242 W/m 10,5 km/h (2 Bft)
26.04.2015 13:02 16,3 C 13,9 C 79 % 1006,3 hPa 0,0 l/m 0 min 0 min 239 W/m 12,6 km/h (3 Bft)
26.04.2015 13:04 16,4 C 14,4 C 80 % 1006,3 hPa 0,0 l/m 0 min 0 min 215 W/m 14,6 km/h (3 Bft)
26.04.2015 13:06 16,3 C 13,9 C 79 % 1006,3 hPa 0,0 l/m 0 min 0 min 183 W/m 20,9 km/h (4 Bft)
26.04.2015 13:08 16,3 C 13,9 C 79 % 1006,3 hPa 0,0 l/m 0 min 0 min 156 W/m 16,7 km/h (3 Bft)
26.04.2015 13:10 16,2 C 13,9 C 79 % 1006,4 hPa 0,0 l/m 0 min 0 min 155 W/m 20,9 km/h (4 Bft)
26.04.2015 13:12 16,2 C 13,3 C 79 % 1006,4 hPa 0,0 l/m 0 min 2 min 158 W/m 16,7 km/h (3 Bft)
26.04.2015 13:14 16,1 C 13,3 C 79 % 1006,4 hPa 0,0 l/m 0 min 2 min 156 W/m 18,8 km/h (3 Bft)
26.04.2015 13:16 16,0 C 13,3 C 79 % 1006,4 hPa 0,0 l/m 0 min 2 min 157 W/m 16,7 km/h (3 Bft)
26.04.2015 13:18 15,9 C 13,3 C 80 % 1006,4 hPa 0,0 l/m 0 min 2 min 155 W/m 14,6 km/h (3 Bft)
26.04.2015 13:20 15,9 C 13,3 C 81 % 1006,3 hPa 0,0 l/m 0 min 2 min 157 W/m 20,9 km/h (4 Bft)
26.04.2015 13:22 15,8 C 12,8 C 82 % 1006,4 hPa 0,0 l/m 0 min 2 min 156 W/m 20,9 km/h (4 Bft)
26.04.2015 13:24 15,8 C 12,8 C 82 % 1006,3 hPa 0,0 l/m 0 min 2 min 155 W/m 18,8 km/h (3 Bft)
26.04.2015 13:26 15,7 C 12,8 C 82 % 1006,3 hPa 0,0 l/m 0 min 2 min 152 W/m 14,6 km/h (3 Bft)
26.04.2015 13:28 15,6 C 12,8 C 83 % 1006,3 hPa 0,0 l/m 0 min 2 min 150 W/m 16,7 km/h (3 Bft)
26.04.2015 13:30 15,5 C 12,8 C 83 % 1006,3 hPa 0,0 l/m 0 min 2 min 159 W/m 14,6 km/h (3 Bft)
26.04.2015 13:32 15,4 C 12,8 C 84 % 1006,3 hPa 0,2 l/m 0 min 2 min 186 W/m 16,7 km/h (3 Bft)
26.04.2015 13:34 15,3 C 12,8 C 84 % 1006,3 hPa 0,0 l/m 0 min 2 min 222 W/m 14,6 km/h (3 Bft)
26.04.2015 13:36 15,3 C 12,8 C 84 % 1006,3 hPa 0,0 l/m 0 min 2 min 266 W/m 14,6 km/h (3 Bft)
26.04.2015 13:38 15,2 C 13,3 C 85 % 1006,2 hPa 0,0 l/m 0 min 2 min 284 W/m 14,6 km/h (3 Bft)
26.04.2015 13:40 15,2 C 13,3 C 85 % 1006,2 hPa 0,0 l/m 0 min 2 min 287 W/m 12,6 km/h (3 Bft)
26.04.2015 13:42 15,2 C 13,3 C 86 % 1006,1 hPa 0,0 l/m 0 min 2 min 296 W/m 8,4 km/h (2 Bft)
26.04.2015 13:44 15,2 C 13,3 C 86 % 1006,1 hPa 0,0 l/m 0 min 2 min 290 W/m 10,5 km/h (2 Bft)
26.04.2015 13:46 15,2 C 13,3 C 87 % 1006,0 hPa 0,0 l/m 0 min 2 min 259 W/m 8,4 km/h (2 Bft)
26.04.2015 13:48 15,1 C 13,3 C 87 % 1006,0 hPa 0,0 l/m 0 min 2 min 233 W/m 10,5 km/h (2 Bft)
26.04.2015 13:50 15,1 C 13,3 C 87 % 1006,0 hPa 0,0 l/m 0 min 0 min 222 W/m 12,6 km/h (3 Bft)
26.04.2015 13:52 15,1 C 13,3 C 87 % 1006,0 hPa 0,0 l/m 0 min 2 min 227 W/m 10,5 km/h (2 Bft)
26.04.2015 13:54 15,1 C 13,3 C 87 % 1006,0 hPa 0,0 l/m 0 min 2 min 238 W/m 10,5 km/h (2 Bft)
26.04.2015 13:56 15,1 C 13,3 C 87 % 1005,9 hPa 0,0 l/m 0 min 2 min 252 W/m 10,5 km/h (2 Bft)
26.04.2015 13:58 15,1 C 13,3 C 87 % 1005,9 hPa 0,0 l/m 0 min 2 min 269 W/m 10,5 km/h (2 Bft)
26.04.2015 14:00 15,1 C 13,3 C 87 % 1005,9 hPa 0,2 l/m 0 min 2 min 293 W/m 10,5 km/h (2 Bft)
26.04.2015 14:02 15,1 C 13,3 C 87 % 1005,8 hPa 0,0 l/m 0 min 2 min 311 W/m 12,6 km/h (3 Bft)
26.04.2015 14:04 15,1 C 13,3 C 88 % 1005,8 hPa 0,0 l/m 0 min 0 min 314 W/m 10,5 km/h (2 Bft)
26.04.2015 14:06 15,1 C 13,3 C 88 % 1005,8 hPa 0,0 l/m 0 min 0 min 331 W/m 14,6 km/h (3 Bft)
26.04.2015 14:08 15,1 C 13,3 C 88 % 1005,8 hPa 0,0 l/m 0 min 0 min 375 W/m 14,6 km/h (3 Bft)
26.04.2015 14:10 15,1 C 13,3 C 88 % 1005,8 hPa 0,0 l/m 2 min 0 min 417 W/m 12,6 km/h (3 Bft)
26.04.2015 14:12 15,2 C 13,9 C 88 % 1005,8 hPa 0,0 l/m 2 min 0 min 472 W/m 14,6 km/h (3 Bft)
26.04.2015 14:14 15,2 C 14,4 C 88 % 1005,8 hPa 0,0 l/m 2 min 0 min 583 W/m 10,5 km/h (2 Bft)
26.04.2015 14:16 15,4 C 14,4 C 88 % 1005,7 hPa 0,0 l/m 2 min 0 min 605 W/m 10,5 km/h (2 Bft)
26.04.2015 14:18 15,5 C 15,0 C 88 % 1005,7 hPa 0,0 l/m 2 min 0 min 505 W/m 10,5 km/h (2 Bft)
26.04.2015 14:20 15,6 C 15,0 C 88 % 1005,7 hPa 0,0 l/m 2 min 0 min 484 W/m 12,6 km/h (3 Bft)
26.04.2015 14:22 15,7 C 14,4 C 87 % 1005,7 hPa 0,0 l/m 2 min 0 min 422 W/m 10,5 km/h (2 Bft)
26.04.2015 14:24 15,7 C 14,4 C 86 % 1005,5 hPa 0,0 l/m 2 min 0 min 416 W/m 10,5 km/h (2 Bft)
26.04.2015 14:26 15,8 C 14,4 C 86 % 1005,5 hPa 0,0 l/m 2 min 0 min 445 W/m 12,6 km/h (3 Bft)
26.04.2015 14:28 15,9 C 14,4 C 85 % 1005,4 hPa 0,0 l/m 2 min 0 min 397 W/m 10,5 km/h (2 Bft)
26.04.2015 14:30 16,0 C 14,4 C 84 % 1005,4 hPa 0,0 l/m 0 min 0 min 363 W/m 14,6 km/h (3 Bft)
26.04.2015 14:32 16,1 C 14,4 C 83 % 1005,4 hPa 0,0 l/m 0 min 0 min 363 W/m 20,9 km/h (4 Bft)
26.04.2015 14:34 16,1 C 14,4 C 82 % 1005,4 hPa 0,0 l/m 0 min 0 min 351 W/m 16,7 km/h (3 Bft)
26.04.2015 14:36 16,2 C 14,4 C 82 % 1005,4 hPa 0,0 l/m 0 min 0 min 350 W/m 12,6 km/h (3 Bft)
26.04.2015 14:38 16,2 C 14,4 C 82 % 1005,4 hPa 0,0 l/m 2 min 0 min 391 W/m 16,7 km/h (3 Bft)
26.04.2015 14:40 16,3 C 14,4 C 81 % 1005,4 hPa 0,0 l/m 2 min 0 min 455 W/m 18,8 km/h (3 Bft)
26.04.2015 14:42 16,4 C 15,0 C 80 % 1005,4 hPa 0,0 l/m 2 min 0 min 589 W/m 16,7 km/h (3 Bft)
26.04.2015 14:44 16,5 C 15,0 C 80 % 1005,4 hPa 0,0 l/m 2 min 0 min 556 W/m 14,6 km/h (3 Bft)
26.04.2015 14:46 16,6 C 15,0 C 80 % 1005,5 hPa 0,0 l/m 2 min 0 min 553 W/m 14,6 km/h (3 Bft)
26.04.2015 14:48 16,7 C 15,6 C 80 % 1005,5 hPa 0,0 l/m 2 min 0 min 527 W/m 14,6 km/h (3 Bft)
26.04.2015 14:50 16,8 C 15,6 C 80 % 1005,5 hPa 0,0 l/m 2 min 0 min 481 W/m 18,8 km/h (3 Bft)
26.04.2015 14:52 16,9 C 15,6 C 79 % 1005,5 hPa 0,0 l/m 2 min 0 min 421 W/m 20,9 km/h (4 Bft)
26.04.2015 14:54 16,9 C 15,6 C 78 % 1005,4 hPa 0,0 l/m 2 min 0 min 398 W/m 16,7 km/h (3 Bft)
26.04.2015 14:56 16,9 C 15,0 C 77 % 1005,4 hPa 0,0 l/m 2 min 0 min 389 W/m 16,7 km/h (3 Bft)
26.04.2015 14:58 17,0 C 15,0 C 77 % 1005,5 hPa 0,0 l/m 2 min 0 min 412 W/m 14,6 km/h (3 Bft)
26.04.2015 15:00 17,1 C 15,6 C 77 % 1005,5 hPa 0,0 l/m 2 min 0 min 451 W/m 14,6 km/h (3 Bft)
26.04.2015 15:02 17,1 C 15,6 C 77 % 1005,4 hPa 0,0 l/m 2 min 0 min 398 W/m 18,8 km/h (3 Bft)
26.04.2015 15:04 17,1 C 15,0 C 77 % 1005,4 hPa 0,0 l/m 2 min 0 min 389 W/m 18,8 km/h (3 Bft)
26.04.2015 15:06 17,1 C 15,0 C 76 % 1005,4 hPa 0,0 l/m 2 min 0 min 404 W/m 20,9 km/h (4 Bft)
26.04.2015 15:08 17,2 C 15,0 C 77 % 1005,4 hPa 0,0 l/m 2 min 0 min 425 W/m 12,6 km/h (3 Bft)
26.04.2015 15:10 17,2 C 15,6 C 78 % 1005,4 hPa 0,0 l/m 2 min 0 min 412 W/m 12,6 km/h (3 Bft)
26.04.2015 15:12 17,3 C 15,6 C 77 % 1005,4 hPa 0,0 l/m 0 min 0 min 358 W/m 16,7 km/h (3 Bft)
26.04.2015 15:14 17,3 C 15,6 C 76 % 1005,5 hPa 0,0 l/m 0 min 0 min 354 W/m 12,6 km/h (3 Bft)
26.04.2015 15:16 17,4 C 15,6 C 77 % 1005,4 hPa 0,0 l/m 0 min 0 min 346 W/m 8,4 km/h (2 Bft)
26.04.2015 15:18 17,4 C 15,6 C 77 % 1005,4 hPa 0,0 l/m 0 min 0 min 313 W/m 10,5 km/h (2 Bft)
26.04.2015 15:20 17,4 C 15,6 C 76 % 1005,4 hPa 0,0 l/m 0 min 0 min 293 W/m 16,7 km/h (3 Bft)
26.04.2015 15:22 17,4 C 15,6 C 76 % 1005,3 hPa 0,0 l/m 0 min 0 min 277 W/m 6,3 km/h (2 Bft)
26.04.2015 15:24 17,5 C 15,6 C 76 % 1005,2 hPa 0,0 l/m 0 min 0 min 278 W/m 12,6 km/h (3 Bft)
26.04.2015 15:26 17,5 C 15,0 C 75 % 1005,2 hPa 0,0 l/m 0 min 0 min 314 W/m 14,6 km/h (3 Bft)
26.04.2015 15:28 17,4 C 15,0 C 75 % 1005,3 hPa 0,0 l/m 0 min 0 min 344 W/m 12,6 km/h (3 Bft)
26.04.2015 15:30 17,4 C 15,0 C 75 % 1005,3 hPa 0,0 l/m 2 min 0 min 348 W/m 12,6 km/h (3 Bft)
26.04.2015 15:32 17,4 C 15,6 C 75 % 1005,4 hPa 0,0 l/m 2 min 0 min 375 W/m 16,7 km/h (3 Bft)
26.04.2015 15:34 17,5 C 15,6 C 75 % 1005,3 hPa 0,0 l/m 2 min 0 min 429 W/m 10,5 km/h (2 Bft)
26.04.2015 15:36 17,5 C 15,6 C 75 % 1005,3 hPa 0,0 l/m 2 min 0 min 445 W/m 14,6 km/h (3 Bft)
26.04.2015 15:38 17,6 C 15,6 C 75 % 1005,2 hPa 0,0 l/m 2 min 0 min 371 W/m 16,7 km/h (3 Bft)
26.04.2015 15:40 17,6 C 15,6 C 74 % 1005,2 hPa 0,0 l/m 0 min 0 min 340 W/m 14,6 km/h (3 Bft)
26.04.2015 15:42 17,6 C 15,6 C 73 % 1005,2 hPa 0,0 l/m 2 min 2 min 351 W/m 12,6 km/h (3 Bft)
26.04.2015 15:44 17,6 C 15,6 C 74 % 1005,1 hPa 0,0 l/m 2 min 2 min 370 W/m 10,5 km/h (2 Bft)
26.04.2015 15:46 17,6 C 15,0 C 75 % 1005,1 hPa 0,0 l/m 0 min 2 min 324 W/m 12,6 km/h (3 Bft)
26.04.2015 15:48 17,6 C 15,0 C 75 % 1005,2 hPa 0,0 l/m 0 min 2 min 272 W/m 12,6 km/h (3 Bft)
26.04.2015 15:50 17,6 C 14,4 C 75 % 1005,2 hPa 0,0 l/m 0 min 2 min 231 W/m 12,6 km/h (3 Bft)
26.04.2015 15:52 17,6 C 14,4 C 75 % 1005,2 hPa 0,0 l/m 0 min 2 min 163 W/m 10,5 km/h (2 Bft)
26.04.2015 15:54 17,6 C 13,9 C 75 % 1005,2 hPa 0,0 l/m 0 min 2 min 129 W/m 18,8 km/h (3 Bft)
26.04.2015 15:56 17,5 C 13,3 C 76 % 1005,3 hPa 0,0 l/m 0 min 2 min 92 W/m 27,2 km/h (4 Bft)
26.04.2015 15:58 17,3 C 13,3 C 76 % 1005,3 hPa 0,0 l/m 0 min 2 min 73 W/m 27,2 km/h (4 Bft)
26.04.2015 16:00 17,2 C 12,8 C 76 % 1005,3 hPa 0,0 l/m 0 min 2 min 68 W/m 20,9 km/h (4 Bft)
26.04.2015 16:02 17,0 C 12,8 C 77 % 1005,2 hPa 0,0 l/m 0 min 2 min 83 W/m 12,6 km/h (3 Bft)
26.04.2015 16:04 16,9 C 12,8 C 78 % 1005,2 hPa 0,2 l/m 0 min 2 min 113 W/m 14,6 km/h (3 Bft)
26.04.2015 16:06 16,8 C 12,8 C 79 % 1005,3 hPa 0,0 l/m 0 min 2 min 139 W/m 10,5 km/h (2 Bft)
26.04.2015 16:08 16,7 C 12,8 C 80 % 1005,3 hPa 0,0 l/m 0 min 2 min 158 W/m 8,4 km/h (2 Bft)
26.04.2015 16:10 16,5 C 12,8 C 80 % 1005,2 hPa 0,0 l/m 0 min 0 min 180 W/m 8,4 km/h (2 Bft)
26.04.2015 16:12 16,4 C 12,8 C 80 % 1005,2 hPa 0,0 l/m 0 min 0 min 201 W/m 10,5 km/h (2 Bft)
26.04.2015 16:14 16,3 C 12,8 C 81 % 1005,2 hPa 0,0 l/m 0 min 0 min 205 W/m 10,5 km/h (2 Bft)
26.04.2015 16:16 16,2 C 13,3 C 81 % 1005,1 hPa 0,0 l/m 0 min 0 min 200 W/m 8,4 km/h (2 Bft)
26.04.2015 16:18 16,0 C 13,3 C 81 % 1005,1 hPa 0,0 l/m 0 min 0 min 201 W/m 10,5 km/h (2 Bft)
26.04.2015 16:20 15,9 C 13,3 C 81 % 1005,0 hPa 0,0 l/m 0 min 0 min 202 W/m 10,5 km/h (2 Bft)
26.04.2015 16:22 15,8 C 12,8 C 81 % 1005,0 hPa 0,0 l/m 0 min 0 min 203 W/m 10,5 km/h (2 Bft)
26.04.2015 16:24 15,7 C 12,8 C 81 % 1005,0 hPa 0,0 l/m 0 min 0 min 198 W/m 8,4 km/h (2 Bft)
26.04.2015 16:26 15,6 C 12,8 C 81 % 1005,0 hPa 0,0 l/m 0 min 0 min 185 W/m 8,4 km/h (2 Bft)
26.04.2015 16:28 15,5 C 12,8 C 82 % 1005,0 hPa 0,0 l/m 0 min 0 min 168 W/m 6,3 km/h (2 Bft)
26.04.2015 16:30 15,4 C 12,8 C 82 % 1005,0 hPa 0,0 l/m 0 min 0 min 166 W/m 8,4 km/h (2 Bft)
26.04.2015 16:32 15,4 C 12,8 C 83 % 1004,9 hPa 0,0 l/m 0 min 0 min 180 W/m 8,4 km/h (2 Bft)
26.04.2015 16:34 15,3 C 12,8 C 83 % 1004,9 hPa 0,0 l/m 0 min 0 min 200 W/m 8,4 km/h (2 Bft)
26.04.2015 16:36 15,2 C 12,8 C 83 % 1004,9 hPa 0,0 l/m 0 min 0 min 204 W/m 8,4 km/h (2 Bft)
26.04.2015 16:38 15,2 C 12,8 C 83 % 1004,9 hPa 0,0 l/m 0 min 0 min 180 W/m 6,3 km/h (2 Bft)
26.04.2015 16:40 15,1 C 13,3 C 84 % 1004,9 hPa 0,0 l/m 0 min 0 min 163 W/m 4,2 km/h (1 Bft)
26.04.2015 16:42 15,1 C 13,3 C 84 % 1004,9 hPa 0,0 l/m 0 min 0 min 171 W/m 4,2 km/h (1 Bft)
26.04.2015 16:44 15,1 C 13,3 C 84 % 1004,8 hPa 0,0 l/m 0 min 0 min 179 W/m 8,4 km/h (2 Bft)
26.04.2015 16:46 15,1 C 12,8 C 84 % 1004,9 hPa 0,0 l/m 0 min 0 min 195 W/m 4,2 km/h (1 Bft)
26.04.2015 16:48 15,1 C 13,3 C 84 % 1004,9 hPa 0,0 l/m 0 min 0 min 255 W/m 6,3 km/h (2 Bft)
26.04.2015 16:50 15,0 C 13,3 C 84 % 1004,8 hPa 0,0 l/m 2 min 0 min 295 W/m 4,2 km/h (1 Bft)
26.04.2015 16:52 15,0 C 13,3 C 84 % 1004,8 hPa 0,0 l/m 2 min 0 min 329 W/m 6,3 km/h (2 Bft)
26.04.2015 16:54 15,1 C 13,9 C 85 % 1004,8 hPa 0,0 l/m 2 min 0 min 327 W/m 6,3 km/h (2 Bft)
26.04.2015 16:56 15,1 C 13,3 C 85 % 1004,8 hPa 0,0 l/m 0 min 0 min 240 W/m 6,3 km/h (2 Bft)
26.04.2015 16:58 15,1 C 13,3 C 85 % 1004,8 hPa 0,0 l/m 0 min 0 min 242 W/m 8,4 km/h (2 Bft)
26.04.2015 17:00 15,1 C 13,9 C 85 % 1004,8 hPa 0,0 l/m 0 min 0 min 244 W/m 6,3 km/h (2 Bft)
26.04.2015 17:02 15,2 C 13,3 C 85 % 1004,7 hPa 0,0 l/m 0 min 0 min 236 W/m 10,5 km/h (2 Bft)
26.04.2015 17:04 15,2 C 13,3 C 85 % 1004,7 hPa 0,0 l/m 0 min 0 min 230 W/m 10,5 km/h (2 Bft)
26.04.2015 17:06 15,2 C 13,3 C 85 % 1004,7 hPa 0,0 l/m 0 min 0 min 229 W/m 12,6 km/h (3 Bft)
26.04.2015 17:08 15,2 C 13,3 C 84 % 1004,7 hPa 0,0 l/m 0 min 0 min 230 W/m 10,5 km/h (2 Bft)
26.04.2015 17:10 15,2 C 13,3 C 84 % 1004,6 hPa 0,0 l/m 0 min 0 min 236 W/m 10,5 km/h (2 Bft)
26.04.2015 17:12 15,2 C 13,3 C 84 % 1004,7 hPa 0,0 l/m 0 min 0 min 252 W/m 10,5 km/h (2 Bft)
26.04.2015 17:14 15,2 C 13,9 C 84 % 1004,7 hPa 0,0 l/m 0 min 0 min 257 W/m 8,4 km/h (2 Bft)
26.04.2015 17:16 15,2 C 13,9 C 84 % 1004,8 hPa 0,0 l/m 2 min 0 min 284 W/m 12,6 km/h (3 Bft)
26.04.2015 17:18 15,2 C 13,9 C 84 % 1004,7 hPa 0,0 l/m 2 min 0 min 293 W/m 8,4 km/h (2 Bft)
26.04.2015 17:20 15,3 C 13,9 C 84 % 1004,7 hPa 0,0 l/m 2 min 0 min 257 W/m 10,5 km/h (2 Bft)
26.04.2015 17:22 15,3 C 13,9 C 84 % 1004,7 hPa 0,0 l/m 0 min 0 min 241 W/m 10,5 km/h (2 Bft)
26.04.2015 17:24 15,3 C 13,9 C 84 % 1004,7 hPa 0,0 l/m 0 min 0 min 228 W/m 12,6 km/h (3 Bft)
26.04.2015 17:26 15,3 C 13,9 C 85 % 1004,6 hPa 0,0 l/m 0 min 0 min 216 W/m 10,5 km/h (2 Bft)
26.04.2015 17:28 15,4 C 13,9 C 84 % 1004,6 hPa 0,0 l/m 0 min 0 min 209 W/m 12,6 km/h (3 Bft)
26.04.2015 17:30 15,4 C 13,9 C 84 % 1004,5 hPa 0,0 l/m 0 min 0 min 200 W/m 8,4 km/h (2 Bft)
26.04.2015 17:32 15,4 C 13,9 C 84 % 1004,5 hPa 0,0 l/m 0 min 0 min 196 W/m 6,3 km/h (2 Bft)
26.04.2015 17:34 15,4 C 13,9 C 84 % 1004,5 hPa 0,0 l/m 0 min 0 min 198 W/m 6,3 km/h (2 Bft)
26.04.2015 17:36 15,4 C 13,9 C 85 % 1004,6 hPa 0,0 l/m 0 min 0 min 199 W/m 6,3 km/h (2 Bft)
26.04.2015 17:38 15,4 C 13,9 C 85 % 1004,6 hPa 0,0 l/m 0 min 0 min 194 W/m 6,3 km/h (2 Bft)
26.04.2015 17:40 15,4 C 13,9 C 84 % 1004,6 hPa 0,0 l/m 0 min 0 min 187 W/m 8,4 km/h (2 Bft)
26.04.2015 17:42 15,5 C 13,9 C 84 % 1004,6 hPa 0,0 l/m 0 min 0 min 202 W/m 8,4 km/h (2 Bft)
26.04.2015 17:44 15,5 C 13,9 C 84 % 1004,4 hPa 0,0 l/m 0 min 0 min 222 W/m 8,4 km/h (2 Bft)
26.04.2015 17:46 15,4 C 13,9 C 84 % 1004,4 hPa 0,0 l/m 0 min 0 min 221 W/m 8,4 km/h (2 Bft)
26.04.2015 17:48 15,4 C 13,9 C 83 % 1004,5 hPa 0,0 l/m 0 min 0 min 218 W/m 6,3 km/h (2 Bft)
26.04.2015 17:50 15,4 C 13,9 C 83 % 1004,4 hPa 0,0 l/m 2 min 0 min 218 W/m 6,3 km/h (2 Bft)
26.04.2015 17:52 15,5 C 13,9 C 84 % 1004,4 hPa 0,0 l/m 2 min 0 min 215 W/m 8,4 km/h (2 Bft)
26.04.2015 17:54 15,6 C 13,9 C 84 % 1004,4 hPa 0,0 l/m 0 min 0 min 210 W/m 8,4 km/h (2 Bft)
26.04.2015 17:56 15,6 C 13,9 C 84 % 1004,4 hPa 0,0 l/m 0 min 0 min 207 W/m 6,3 km/h (2 Bft)
26.04.2015 17:58 15,6 C 13,9 C 84 % 1004,4 hPa 0,0 l/m 0 min 0 min 201 W/m 6,3 km/h (2 Bft)
26.04.2015 18:00 15,7 C 13,9 C 84 % 1004,4 hPa 0,0 l/m 0 min 0 min 192 W/m 4,2 km/h (1 Bft)
26.04.2015 18:02 15,7 C 13,9 C 84 % 1004,4 hPa 0,0 l/m 0 min 0 min 180 W/m 4,2 km/h (1 Bft)
26.04.2015 18:06 15,7 C 13,9 C 84 % 1004,3 hPa 0,0 l/m 0 min 0 min 175 W/m 6,3 km/h (2 Bft)
26.04.2015 18:08 15,7 C 13,9 C 83 % 1004,3 hPa 0,0 l/m 0 min 0 min 175 W/m 8,4 km/h (2 Bft)
26.04.2015 18:10 15,7 C 13,9 C 83 % 1004,4 hPa 0,0 l/m 0 min 0 min 174 W/m 6,3 km/h (2 Bft)
26.04.2015 18:12 15,7 C 13,9 C 83 % 1004,3 hPa 0,0 l/m 0 min 0 min 172 W/m 6,3 km/h (2 Bft)
26.04.2015 18:14 15,7 C 13,9 C 83 % 1004,4 hPa 0,0 l/m 0 min 0 min 174 W/m 6,3 km/h (2 Bft)
26.04.2015 18:16 15,8 C 13,9 C 83 % 1004,4 hPa 0,0 l/m 0 min 0 min 182 W/m 4,2 km/h (1 Bft)
26.04.2015 18:18 15,8 C 13,9 C 83 % 1004,3 hPa 0,0 l/m 2 min 0 min 187 W/m 10,5 km/h (2 Bft)
26.04.2015 18:20 15,8 C 13,9 C 83 % 1004,4 hPa 0,0 l/m 2 min 0 min 187 W/m 8,4 km/h (2 Bft)
26.04.2015 18:22 15,8 C 13,9 C 82 % 1004,3 hPa 0,0 l/m 0 min 0 min 176 W/m 14,6 km/h (3 Bft)
26.04.2015 18:24 15,8 C 13,9 C 81 % 1004,3 hPa 0,0 l/m 0 min 0 min 160 W/m 12,6 km/h (3 Bft)
26.04.2015 18:26 15,8 C 13,9 C 81 % 1004,3 hPa 0,0 l/m 0 min 0 min 150 W/m 12,6 km/h (3 Bft)
26.04.2015 18:28 15,8 C 13,9 C 81 % 1004,3 hPa 0,0 l/m 0 min 0 min 138 W/m 6,3 km/h (2 Bft)
26.04.2015 18:30 15,8 C 13,9 C 81 % 1004,4 hPa 0,0 l/m 0 min 0 min 129 W/m 16,7 km/h (3 Bft)
26.04.2015 18:32 15,8 C 13,9 C 81 % 1004,4 hPa 0,0 l/m 0 min 0 min 120 W/m 12,6 km/h (3 Bft)
26.04.2015 18:34 15,8 C 13,9 C 81 % 1004,5 hPa 0,0 l/m 0 min 0 min 112 W/m 8,4 km/h (2 Bft)
26.04.2015 18:36 15,8 C 13,9 C 81 % 1004,5 hPa 0,0 l/m 0 min 0 min 105 W/m 6,3 km/h (2 Bft)
26.04.2015 18:38 15,8 C 13,9 C 81 % 1004,5 hPa 0,0 l/m 0 min 0 min 98 W/m 12,6 km/h (3 Bft)
26.04.2015 18:40 15,8 C 13,9 C 81 % 1004,5 hPa 0,0 l/m 0 min 0 min 93 W/m 10,5 km/h (2 Bft)
26.04.2015 18:42 15,8 C 13,3 C 81 % 1004,5 hPa 0,0 l/m 0 min 0 min 94 W/m 10,5 km/h (2 Bft)
26.04.2015 18:44 15,8 C 13,3 C 81 % 1004,5 hPa 0,0 l/m 0 min 0 min 99 W/m 8,4 km/h (2 Bft)
26.04.2015 18:46 15,8 C 13,3 C 81 % 1004,5 hPa 0,0 l/m 0 min 0 min 107 W/m 10,5 km/h (2 Bft)
26.04.2015 18:48 15,8 C 13,3 C 81 % 1004,6 hPa 0,0 l/m 0 min 0 min 115 W/m 12,6 km/h (3 Bft)
26.04.2015 18:50 15,7 C 13,3 C 81 % 1004,6 hPa 0,0 l/m 0 min 0 min 124 W/m 8,4 km/h (2 Bft)
26.04.2015 18:52 15,8 C 13,9 C 81 % 1004,5 hPa 0,0 l/m 0 min 0 min 127 W/m 10,5 km/h (2 Bft)
26.04.2015 18:54 15,7 C 13,9 C 82 % 1004,5 hPa 0,0 l/m 2 min 0 min 142 W/m 10,5 km/h (2 Bft)
26.04.2015 18:56 15,7 C 13,9 C 82 % 1004,5 hPa 0,0 l/m 0 min 0 min 124 W/m 6,3 km/h (2 Bft)
26.04.2015 18:58 15,7 C 13,9 C 82 % 1004,5 hPa 0,0 l/m 0 min 0 min 112 W/m 6,3 km/h (2 Bft)
26.04.2015 19:00 15,7 C 13,9 C 82 % 1004,5 hPa 0,0 l/m 0 min 0 min 100 W/m 8,4 km/h (2 Bft)
26.04.2015 19:02 15,7 C 13,3 C 82 % 1004,5 hPa 0,0 l/m 0 min 0 min 91 W/m 8,4 km/h (2 Bft)
26.04.2015 19:04 15,7 C 13,3 C 82 % 1004,5 hPa 0,0 l/m 0 min 0 min 85 W/m 8,4 km/h (2 Bft)
26.04.2015 19:06 15,7 C 13,3 C 82 % 1004,4 hPa 0,0 l/m 0 min 0 min 84 W/m 8,4 km/h (2 Bft)
26.04.2015 19:08 15,7 C 13,3 C 82 % 1004,4 hPa 0,0 l/m 0 min 0 min 82 W/m 8,4 km/h (2 Bft)
26.04.2015 19:10 15,7 C 13,3 C 82 % 1004,4 hPa 0,0 l/m 0 min 0 min 81 W/m 8,4 km/h (2 Bft)
26.04.2015 19:12 15,6 C 13,3 C 82 % 1004,4 hPa 0,0 l/m 0 min 0 min 79 W/m 4,2 km/h (1 Bft)
26.04.2015 19:14 15,6 C 13,3 C 82 % 1004,4 hPa 0,0 l/m 0 min 0 min 74 W/m 2,1 km/h (1 Bft)
26.04.2015 19:16 15,6 C 13,3 C 82 % 1004,4 hPa 0,0 l/m 0 min 0 min 69 W/m 2,1 km/h (1 Bft)
26.04.2015 19:18 15,6 C 13,3 C 82 % 1004,4 hPa 0,0 l/m 0 min 0 min 64 W/m 4,2 km/h (1 Bft)
26.04.2015 19:20 15,6 C 13,3 C 82 % 1004,4 hPa 0,0 l/m 0 min 0 min 58 W/m 6,3 km/h (2 Bft)
26.04.2015 19:22 15,6 C 13,3 C 82 % 1004,4 hPa 0,0 l/m 0 min 0 min 51 W/m 8,4 km/h (2 Bft)
26.04.2015 19:24 15,5 C 13,3 C 82 % 1004,4 hPa 0,0 l/m 0 min 0 min 46 W/m 8,4 km/h (2 Bft)
26.04.2015 19:26 15,4 C 12,8 C 82 % 1004,3 hPa 0,0 l/m 0 min 0 min 42 W/m 10,5 km/h (2 Bft)
26.04.2015 19:28 15,4 C 12,8 C 82 % 1004,3 hPa 0,0 l/m 0 min 0 min 42 W/m 8,4 km/h (2 Bft)
26.04.2015 19:30 15,3 C 12,8 C 82 % 1004,3 hPa 0,0 l/m 0 min 0 min 41 W/m 6,3 km/h (2 Bft)
26.04.2015 19:32 15,3 C 12,8 C 81 % 1004,2 hPa 0,0 l/m 0 min 0 min 43 W/m 6,3 km/h (2 Bft)
26.04.2015 19:34 15,2 C 12,8 C 81 % 1004,2 hPa 0,0 l/m 0 min 0 min 46 W/m 8,4 km/h (2 Bft)
26.04.2015 19:36 15,2 C 12,8 C 81 % 1004,2 hPa 0,0 l/m 0 min 0 min 52 W/m 8,4 km/h (2 Bft)
26.04.2015 19:38 15,2 C 12,8 C 81 % 1004,1 hPa 0,0 l/m 0 min 0 min 56 W/m 10,5 km/h (2 Bft)
26.04.2015 19:40 15,1 C 12,8 C 82 % 1004,1 hPa 0,0 l/m 0 min 0 min 57 W/m 8,4 km/h (2 Bft)
26.04.2015 19:42 15,1 C 12,8 C 82 % 1004,1 hPa 0,0 l/m 0 min 0 min 53 W/m 10,5 km/h (2 Bft)
26.04.2015 19:44 15,0 C 12,8 C 82 % 1004,1 hPa 0,0 l/m 0 min 2 min 46 W/m 10,5 km/h (2 Bft)
26.04.2015 19:46 14,9 C 12,8 C 82 % 1004,1 hPa 0,0 l/m 0 min 2 min 40 W/m 12,6 km/h (3 Bft)
26.04.2015 19:48 14,9 C 12,8 C 82 % 1004,2 hPa 0,0 l/m 0 min 2 min 39 W/m 10,5 km/h (2 Bft)
26.04.2015 19:50 14,9 C 12,8 C 83 % 1004,2 hPa 0,0 l/m 0 min 0 min 39 W/m 8,4 km/h (2 Bft)
26.04.2015 19:52 14,8 C 12,8 C 83 % 1004,3 hPa 0,0 l/m 0 min 0 min 39 W/m 10,5 km/h (2 Bft)
26.04.2015 19:54 14,8 C 12,8 C 83 % 1004,2 hPa 0,0 l/m 0 min 0 min 35 W/m 6,3 km/h (2 Bft)
26.04.2015 19:56 14,8 C 12,8 C 83 % 1004,2 hPa 0,0 l/m 0 min 0 min 33 W/m 8,4 km/h (2 Bft)
26.04.2015 19:58 14,8 C 12,2 C 83 % 1004,2 hPa 0,0 l/m 0 min 0 min 32 W/m 10,5 km/h (2 Bft)
26.04.2015 20:00 14,7 C 12,2 C 83 % 1004,2 hPa 0,0 l/m 0 min 0 min 31 W/m 8,4 km/h (2 Bft)
26.04.2015 20:02 14,7 C 12,2 C 83 % 1004,2 hPa 0,0 l/m 0 min 0 min 29 W/m 8,4 km/h (2 Bft)
26.04.2015 20:04 14,7 C 12,2 C 83 % 1004,2 hPa 0,0 l/m 0 min 0 min 26 W/m 8,4 km/h (2 Bft)
26.04.2015 20:06 14,7 C 12,2 C 84 % 1004,1 hPa 0,0 l/m 0 min 0 min 25 W/m 8,4 km/h (2 Bft)
26.04.2015 20:08 14,7 C 12,2 C 84 % 1004,2 hPa 0,0 l/m 0 min 2 min 23 W/m 8,4 km/h (2 Bft)
26.04.2015 20:10 14,6 C 12,2 C 84 % 1004,1 hPa 0,0 l/m 0 min 0 min 21 W/m 6,3 km/h (2 Bft)
26.04.2015 20:12 14,6 C 12,2 C 84 % 1004,2 hPa 0,0 l/m 0 min 0 min 19 W/m 8,4 km/h (2 Bft)
26.04.2015 20:14 14,6 C 12,2 C 84 % 1004,2 hPa 0,0 l/m 0 min 0 min 17 W/m 6,3 km/h (2 Bft)
26.04.2015 20:16 14,5 C 12,2 C 84 % 1004,2 hPa 0,0 l/m 0 min 0 min 13 W/m 8,4 km/h (2 Bft)
26.04.2015 20:18 14,5 C 12,2 C 84 % 1004,2 hPa 0,0 l/m 0 min 0 min 11 W/m 8,4 km/h (2 Bft)
26.04.2015 20:20 14,4 C 12,2 C 84 % 1004,2 hPa 0,0 l/m 0 min 0 min 11 W/m 8,4 km/h (2 Bft)
26.04.2015 20:22 14,4 C 12,2 C 84 % 1004,3 hPa 0,0 l/m 0 min 0 min 11 W/m 10,5 km/h (2 Bft)
26.04.2015 20:24 14,4 C 12,2 C 84 % 1004,2 hPa 0,0 l/m 0 min 0 min 11 W/m 10,5 km/h (2 Bft)
26.04.2015 20:26 14,4 C 12,2 C 84 % 1004,2 hPa 0,0 l/m 0 min 0 min 11 W/m 10,5 km/h (2 Bft)
26.04.2015 20:28 14,3 C 12,2 C 85 % 1004,2 hPa 0,0 l/m 0 min 0 min 9 W/m 8,4 km/h (2 Bft)
26.04.2015 20:30 14,3 C 12,2 C 85 % 1004,2 hPa 0,0 l/m 0 min 0 min 7 W/m 8,4 km/h (2 Bft)
26.04.2015 20:32 14,3 C 12,2 C 85 % 1004,2 hPa 0,0 l/m 0 min 0 min 6 W/m 10,5 km/h (2 Bft)
26.04.2015 20:34 14,2 C 12,2 C 85 % 1004,3 hPa 0,0 l/m 0 min 0 min 5 W/m 10,5 km/h (2 Bft)
26.04.2015 20:36 14,2 C 12,2 C 86 % 1004,3 hPa 0,0 l/m 0 min 0 min 3 W/m 8,4 km/h (2 Bft)
26.04.2015 20:38 14,2 C 12,2 C 86 % 1004,3 hPa 0,0 l/m 0 min 0 min 0 W/m 8,4 km/h (2 Bft)
26.04.2015 20:40 14,2 C 12,2 C 86 % 1004,3 hPa 0,0 l/m 0 min 0 min 0 W/m 10,5 km/h (2 Bft)
26.04.2015 20:42 14,2 C 12,2 C 86 % 1004,3 hPa 0,0 l/m 0 min 0 min 0 W/m 10,5 km/h (2 Bft)
26.04.2015 20:44 14,2 C 12,2 C 86 % 1004,2 hPa 0,0 l/m 0 min 0 min 0 W/m 10,5 km/h (2 Bft)
26.04.2015 20:46 14,2 C 12,2 C 86 % 1004,3 hPa 0,0 l/m 0 min 0 min 0 W/m 10,5 km/h (2 Bft)
26.04.2015 20:48 14,1 C 12,2 C 87 % 1004,3 hPa 0,0 l/m 0 min 0 min 0 W/m 12,6 km/h (3 Bft)
26.04.2015 20:50 14,1 C 12,2 C 87 % 1004,3 hPa 0,0 l/m 0 min 0 min 0 W/m 10,5 km/h (2 Bft)
26.04.2015 20:52 14,0 C 12,2 C 87 % 1004,2 hPa 0,0 l/m 0 min 0 min 0 W/m 12,6 km/h (3 Bft)
26.04.2015 20:54 13,9 C 12,2 C 87 % 1004,2 hPa 0,0 l/m 0 min 0 min 0 W/m 10,5 km/h (2 Bft)
26.04.2015 20:56 13,9 C 11,7 C 87 % 1004,2 hPa 0,0 l/m 0 min 0 min 0 W/m 14,6 km/h (3 Bft)
26.04.2015 20:58 13,9 C 11,7 C 87 % 1004,1 hPa 0,0 l/m 0 min 0 min 0 W/m 10,5 km/h (2 Bft)
26.04.2015 21:00 13,8 C 11,7 C 87 % 1004,2 hPa 0,0 l/m 0 min 0 min 0 W/m 12,6 km/h (3 Bft)
26.04.2015 21:02 13,8 C 11,7 C 87 % 1004,2 hPa 0,0 l/m 0 min 2 min 0 W/m 10,5 km/h (2 Bft)
26.04.2015 21:04 13,8 C 11,7 C 87 % 1004,3 hPa 0,0 l/m 0 min 2 min 0 W/m 8,4 km/h (2 Bft)
26.04.2015 21:06 13,7 C 11,7 C 88 % 1004,2 hPa 0,0 l/m 0 min 0 min 0 W/m 8,4 km/h (2 Bft)
26.04.2015 21:08 13,7 C 11,7 C 88 % 1004,2 hPa 0,0 l/m 0 min 0 min 0 W/m 10,5 km/h (2 Bft)
26.04.2015 21:10 13,7 C 11,7 C 88 % 1004,2 hPa 0,0 l/m 0 min 0 min 0 W/m 10,5 km/h (2 Bft)
26.04.2015 21:12 13,7 C 11,7 C 88 % 1004,2 hPa 0,0 l/m 0 min 2 min 0 W/m 8,4 km/h (2 Bft)
26.04.2015 21:14 13,6 C 11,7 C 88 % 1004,3 hPa 0,0 l/m 0 min 0 min 0 W/m 6,3 km/h (2 Bft)
26.04.2015 21:16 13,6 C 11,7 C 88 % 1004,3 hPa 0,0 l/m 0 min 0 min 0 W/m 6,3 km/h (2 Bft)
26.04.2015 21:18 13,6 C 11,7 C 88 % 1004,3 hPa 0,0 l/m 0 min 0 min 0 W/m 6,3 km/h (2 Bft)
26.04.2015 21:20 13,6 C 11,7 C 89 % 1004,3 hPa 0,0 l/m 0 min 0 min 0 W/m 8,4 km/h (2 Bft)
26.04.2015 21:22 13,6 C 11,7 C 88 % 1004,3 hPa 0,0 l/m 0 min 0 min 0 W/m 6,3 km/h (2 Bft)
26.04.2015 21:24 13,6 C 11,7 C 88 % 1004,3 hPa 0,0 l/m 0 min 0 min 0 W/m 6,3 km/h (2 Bft)
26.04.2015 21:26 13,6 C 11,7 C 89 % 1004,3 hPa 0,0 l/m 0 min 0 min 0 W/m 8,4 km/h (2 Bft)
26.04.2015 21:28 13,5 C 11,7 C 89 % 1004,3 hPa 0,0 l/m 0 min 0 min 0 W/m 6,3 km/h (2 Bft)
26.04.2015 21:30 13,5 C 11,7 C 89 % 1004,3 hPa 0,0 l/m 0 min 0 min 0 W/m 4,2 km/h (1 Bft)
26.04.2015 21:32 13,5 C 11,7 C 89 % 1004,4 hPa 0,0 l/m 0 min 0 min 0 W/m 4,2 km/h (1 Bft)
26.04.2015 21:34 13,4 C 11,7 C 89 % 1004,4 hPa 0,0 l/m 0 min 0 min 0 W/m 4,2 km/h (1 Bft)
26.04.2015 21:36 13,4 C 11,7 C 89 % 1004,3 hPa 0,0 l/m 0 min 0 min 0 W/m 6,3 km/h (2 Bft)
26.04.2015 21:38 13,4 C 11,7 C 89 % 1004,4 hPa 0,0 l/m 0 min 0 min 0 W/m 4,2 km/h (1 Bft)
26.04.2015 21:40 13,4 C 11,7 C 89 % 1004,4 hPa 0,0 l/m 0 min 0 min 0 W/m 6,3 km/h (2 Bft)
26.04.2015 21:42 13,4 C 11,7 C 89 % 1004,3 hPa 0,0 l/m 0 min 0 min 0 W/m 6,3 km/h (2 Bft)
26.04.2015 21:44 13,4 C 11,7 C 89 % 1004,4 hPa 0,0 l/m 0 min 0 min 0 W/m 6,3 km/h (2 Bft)
26.04.2015 21:46 13,4 C 11,7 C 89 % 1004,4 hPa 0,0 l/m 0 min 0 min 0 W/m 4,2 km/h (1 Bft)
26.04.2015 21:48 13,4 C 11,7 C 89 % 1004,3 hPa 0,0 l/m 0 min 0 min 0 W/m 6,3 km/h (2 Bft)
26.04.2015 21:50 13,3 C 11,7 C 89 % 1004,3 hPa 0,0 l/m 0 min 0 min 0 W/m 6,3 km/h (2 Bft)
26.04.2015 21:52 13,3 C 11,7 C 90 % 1004,3 hPa 0,0 l/m 0 min 0 min 0 W/m 6,3 km/h (2 Bft)
26.04.2015 21:54 13,3 C 11,7 C 89 % 1004,4 hPa 0,0 l/m 0 min 0 min 0 W/m 6,3 km/h (2 Bft)
26.04.2015 21:56 13,3 C 11,7 C 90 % 1004,4 hPa 0,0 l/m 0 min 0 min 0 W/m 6,3 km/h (2 Bft)
26.04.2015 21:58 13,3 C 11,7 C 90 % 1004,4 hPa 0,0 l/m 0 min 0 min 0 W/m 6,3 km/h (2 Bft)
26.04.2015 22:00 13,3 C 11,7 C 90 % 1004,3 hPa 0,0 l/m 0 min 0 min 0 W/m 6,3 km/h (2 Bft)
26.04.2015 22:02 13,3 C 11,7 C 90 % 1004,2 hPa 0,0 l/m 0 min 0 min 0 W/m 6,3 km/h (2 Bft)
26.04.2015 22:04 13,3 C 11,7 C 90 % 1004,2 hPa 0,0 l/m 0 min 0 min 0 W/m 6,3 km/h (2 Bft)
26.04.2015 22:06 13,2 C 11,7 C 90 % 1004,2 hPa 0,0 l/m 0 min 0 min 0 W/m 6,3 km/h (2 Bft)
26.04.2015 22:08 13,2 C 11,7 C 90 % 1004,2 hPa 0,0 l/m 0 min 0 min 0 W/m 4,2 km/h (1 Bft)
26.04.2015 22:10 13,2 C 11,7 C 90 % 1004,2 hPa 0,0 l/m 0 min 0 min 0 W/m 2,1 km/h (1 Bft)
26.04.2015 22:12 13,2 C 11,7 C 90 % 1004,2 hPa 0,0 l/m 0 min 0 min 0 W/m 2,1 km/h (1 Bft)
26.04.2015 22:14 13,2 C 11,7 C 90 % 1004,2 hPa 0,0 l/m 0 min 0 min 0 W/m 4,2 km/h (1 Bft)
26.04.2015 22:16 13,2 C 11,7 C 90 % 1004,2 hPa 0,0 l/m 0 min 0 min 0 W/m 4,2 km/h (1 Bft)
26.04.2015 22:18 13,2 C 11,7 C 90 % 1004,1 hPa 0,0 l/m 0 min 0 min 0 W/m 4,2 km/h (1 Bft)
26.04.2015 22:20 13,2 C 11,7 C 90 % 1004,1 hPa 0,0 l/m 0 min 0 min 0 W/m 4,2 km/h (1 Bft)
26.04.2015 22:22 13,2 C 11,7 C 90 % 1004,1 hPa 0,0 l/m 0 min 0 min 0 W/m 4,2 km/h (1 Bft)
26.04.2015 22:24 13,1 C 11,7 C 90 % 1004,1 hPa 0,0 l/m 0 min 0 min 0 W/m 2,1 km/h (1 Bft)
26.04.2015 22:26 13,1 C 11,7 C 90 % 1004,1 hPa 0,0 l/m 0 min 0 min 0 W/m 4,2 km/h (1 Bft)
26.04.2015 22:28 13,1 C 11,7 C 90 % 1004,1 hPa 0,0 l/m 0 min 0 min 0 W/m 6,3 km/h (2 Bft)
26.04.2015 22:30 13,1 C 11,7 C 90 % 1004,0 hPa 0,0 l/m 0 min 0 min 0 W/m 4,2 km/h (1 Bft)
26.04.2015 22:32 13,1 C 11,7 C 90 % 1004,1 hPa 0,0 l/m 0 min 2 min 0 W/m 6,3 km/h (2 Bft)
26.04.2015 22:34 13,1 C 11,7 C 91 % 1004,0 hPa 0,0 l/m 0 min 2 min 0 W/m 4,2 km/h (1 Bft)
26.04.2015 22:36 13,1 C 11,7 C 91 % 1004,1 hPa 0,0 l/m 0 min 2 min 0 W/m 4,2 km/h (1 Bft)
26.04.2015 22:38 13,1 C 11,7 C 91 % 1004,1 hPa 0,0 l/m 0 min 2 min 0 W/m 4,2 km/h (1 Bft)
26.04.2015 22:40 13,0 C 11,7 C 90 % 1004,1 hPa 0,0 l/m 0 min 2 min 0 W/m 4,2 km/h (1 Bft)
26.04.2015 22:42 13,0 C 11,7 C 90 % 1004,1 hPa 0,0 l/m 0 min 2 min 0 W/m 2,1 km/h (1 Bft)
26.04.2015 22:44 13,0 C 11,1 C 91 % 1004,1 hPa 0,0 l/m 0 min 2 min 0 W/m 4,2 km/h (1 Bft)
26.04.2015 22:46 13,0 C 11,1 C 91 % 1004,0 hPa 0,0 l/m 0 min 2 min 0 W/m 4,2 km/h (1 Bft)
26.04.2015 22:48 13,0 C 11,1 C 91 % 1004,0 hPa 0,0 l/m 0 min 2 min 0 W/m 4,2 km/h (1 Bft)
26.04.2015 22:50 12,9 C 11,1 C 91 % 1004,0 hPa 0,0 l/m 0 min 2 min 0 W/m 4,2 km/h (1 Bft)
26.04.2015 22:52 12,9 C 11,1 C 91 % 1004,1 hPa 0,0 l/m 0 min 2 min 0 W/m 4,2 km/h (1 Bft)
26.04.2015 22:54 12,9 C 11,1 C 91 % 1004,1 hPa 0,2 l/m 0 min 2 min 0 W/m 6,3 km/h (2 Bft)
26.04.2015 22:56 12,9 C 11,1 C 91 % 1004,1 hPa 0,0 l/m 0 min 2 min 0 W/m 6,3 km/h (2 Bft)
26.04.2015 22:58 12,9 C 11,1 C 91 % 1004,0 hPa 0,0 l/m 0 min 2 min 0 W/m 4,2 km/h (1 Bft)
26.04.2015 23:00 12,9 C 11,1 C 91 % 1004,0 hPa 0,0 l/m 0 min 2 min 0 W/m 4,2 km/h (1 Bft)
26.04.2015 23:02 12,9 C 11,1 C 91 % 1004,0 hPa 0,0 l/m 0 min 2 min 0 W/m 6,3 km/h (2 Bft)
26.04.2015 23:04 12,9 C 11,1 C 91 % 1004,0 hPa 0,0 l/m 0 min 2 min 0 W/m 6,3 km/h (2 Bft)
26.04.2015 23:06 12,9 C 11,1 C 91 % 1004,0 hPa 0,0 l/m 0 min 2 min 0 W/m 6,3 km/h (2 Bft)
26.04.2015 23:08 12,9 C 11,1 C 91 % 1003,9 hPa 0,0 l/m 0 min 2 min 0 W/m 8,4 km/h (2 Bft)
26.04.2015 23:10 12,9 C 11,1 C 92 % 1004,0 hPa 0,0 l/m 0 min 2 min 0 W/m 6,3 km/h (2 Bft)
26.04.2015 23:12 12,9 C 11,1 C 92 % 1004,0 hPa 0,0 l/m 0 min 2 min 0 W/m 6,3 km/h (2 Bft)
26.04.2015 23:14 12,9 C 11,1 C 92 % 1004,0 hPa 0,0 l/m 0 min 2 min 0 W/m 4,2 km/h (1 Bft)
26.04.2015 23:16 12,9 C 11,1 C 92 % 1003,9 hPa 0,0 l/m 0 min 2 min 0 W/m 8,4 km/h (2 Bft)
26.04.2015 23:18 12,9 C 11,1 C 92 % 1003,9 hPa 0,0 l/m 0 min 2 min 0 W/m 6,3 km/h (2 Bft)
26.04.2015 23:20 12,8 C 11,1 C 92 % 1004,0 hPa 0,0 l/m 0 min 2 min 0 W/m 6,3 km/h (2 Bft)
26.04.2015 23:22 12,8 C 11,1 C 92 % 1003,9 hPa 0,0 l/m 0 min 2 min 0 W/m 8,4 km/h (2 Bft)
26.04.2015 23:24 12,8 C 11,1 C 92 % 1004,0 hPa 0,0 l/m 0 min 2 min 0 W/m 6,3 km/h (2 Bft)
26.04.2015 23:26 12,8 C 11,1 C 92 % 1003,9 hPa 0,0 l/m 0 min 2 min 0 W/m 10,5 km/h (2 Bft)
26.04.2015 23:28 12,8 C 11,1 C 92 % 1004,0 hPa 0,0 l/m 0 min 2 min 0 W/m 10,5 km/h (2 Bft)
26.04.2015 23:30 12,8 C 11,1 C 92 % 1004,0 hPa 0,0 l/m 0 min 2 min 0 W/m 6,3 km/h (2 Bft)
26.04.2015 23:32 12,8 C 11,1 C 92 % 1004,0 hPa 0,0 l/m 0 min 2 min 0 W/m 6,3 km/h (2 Bft)
26.04.2015 23:34 12,7 C 11,1 C 92 % 1004,0 hPa 0,2 l/m 0 min 2 min 0 W/m 10,5 km/h (2 Bft)
26.04.2015 23:36 12,7 C 11,1 C 93 % 1004,0 hPa 0,0 l/m 0 min 2 min 0 W/m 10,5 km/h (2 Bft)
26.04.2015 23:38 12,7 C 11,1 C 93 % 1004,0 hPa 0,0 l/m 0 min 2 min 0 W/m 12,6 km/h (3 Bft)
26.04.2015 23:40 12,7 C 11,1 C 93 % 1003,9 hPa 0,0 l/m 0 min 2 min 0 W/m 12,6 km/h (3 Bft)
26.04.2015 23:42 12,7 C 11,1 C 93 % 1003,9 hPa 0,0 l/m 0 min 2 min 0 W/m 10,5 km/h (2 Bft)
26.04.2015 23:44 12,7 C 11,1 C 93 % 1004,0 hPa 0,0 l/m 0 min 2 min 0 W/m 10,5 km/h (2 Bft)
26.04.2015 23:46 12,7 C 11,1 C 93 % 1004,0 hPa 0,0 l/m 0 min 2 min 0 W/m 10,5 km/h (2 Bft)
26.04.2015 23:48 12,7 C 11,1 C 93 % 1003,9 hPa 0,0 l/m 0 min 2 min 0 W/m 12,6 km/h (3 Bft)
26.04.2015 23:50 12,7 C 11,1 C 93 % 1003,9 hPa 0,0 l/m 0 min 2 min 0 W/m 14,6 km/h (3 Bft)
26.04.2015 23:52 12,6 C 11,1 C 93 % 1003,9 hPa 0,0 l/m 0 min 2 min 0 W/m 14,6 km/h (3 Bft)
26.04.2015 23:54 12,6 C 11,1 C 93 % 1003,9 hPa 0,0 l/m 0 min 2 min 0 W/m 16,7 km/h (3 Bft)
26.04.2015 23:56 12,6 C 11,1 C 93 % 1003,9 hPa 0,0 l/m 0 min 2 min 0 W/m 16,7 km/h (3 Bft)
26.04.2015 23:58 12,6 C 11,1 C 94 % 1004,0 hPa 0,0 l/m 0 min 2 min 0 W/m 12,6 km/h (3 Bft)
_ Min-Zeit 05:56 00:00 15:42 23:08 - - - - 19:14
Minimum _ 11,3 C 10,0 C 73 % 1003,9 hPa - - - - 2,1 km/h (1 Bft)
_ Max-Zeit 15:38 12:00 06:12 01:26 01:24 07:42 01:12 10:42 01:18
Maximum _ 17,6 C 16,1 C 97 % 1007,7 hPa 0,2 l/m 2 min 2 min 942 W/m 31,4 km/h
W-SW (5 Bft)
Durchschnitt _ 13,9 C 12,2 C 88 % 1005,7 hPa #3,2 l/m #3:44 h #4:44 h 217 W/m 11,7 km/h (2 Bft)
© 2015 W. Hausmann